Wetterdaten: Sonntag, 12.01.2014
Datum Zeit Temp. Aussen +5cm Feuchte Auss Luftdruck Regen Sonnenschein Regendauer UV Solar Windben
12.01.2014 00:00 2,3 C 0,6 C 93 % 1023,5 hPa 0,0 l/m 0 min 0 min 0,0 UV-I 0 W/m 2,6 km/h (1 Bft)
12.01.2014 00:02 2,2 C 0,6 C 93 % 1023,5 hPa 0,0 l/m 0 min 0 min 0,0 UV-I 0 W/m 0,0 km/h (0 Bft)
12.01.2014 00:04 2,2 C 0,6 C 93 % 1023,6 hPa 0,0 l/m 0 min 0 min 0,0 UV-I 0 W/m 5,1 km/h (1 Bft)
12.01.2014 00:06 2,3 C 0,6 C 94 % 1023,5 hPa 0,0 l/m 0 min 0 min 0,0 UV-I 0 W/m 0,0 km/h (0 Bft)
12.01.2014 00:08 2,3 C 1,1 C 94 % 1023,5 hPa 0,0 l/m 0 min 0 min 0,0 UV-I 0 W/m 0,0 km/h (0 Bft)
12.01.2014 00:10 2,3 C 1,1 C 94 % 1023,7 hPa 0,0 l/m 0 min 0 min 0,0 UV-I 0 W/m 10,3 km/h (2 Bft)
12.01.2014 00:12 2,3 C 1,1 C 94 % 1023,7 hPa 0,0 l/m 0 min 0 min 0,0 UV-I 0 W/m 2,6 km/h (1 Bft)
12.01.2014 00:14 2,3 C 1,1 C 94 % 1023,8 hPa 0,0 l/m 0 min 0 min 0,0 UV-I 0 W/m 5,1 km/h (1 Bft)
12.01.2014 00:16 2,3 C 1,1 C 94 % 1023,8 hPa 0,0 l/m 0 min 0 min 0,0 UV-I 0 W/m 5,1 km/h (1 Bft)
12.01.2014 00:18 2,4 C 1,1 C 94 % 1023,8 hPa 0,0 l/m 0 min 0 min 0,0 UV-I 0 W/m 5,1 km/h (1 Bft)
12.01.2014 00:20 2,4 C 1,1 C 94 % 1023,8 hPa 0,0 l/m 0 min 0 min 0,0 UV-I 0 W/m 5,1 km/h (1 Bft)
12.01.2014 00:22 2,4 C 1,1 C 94 % 1023,8 hPa 0,0 l/m 0 min 0 min 0,0 UV-I 0 W/m 0,0 km/h (0 Bft)
12.01.2014 00:24 2,4 C 1,1 C 94 % 1023,7 hPa 0,0 l/m 0 min 0 min 0,0 UV-I 0 W/m 5,1 km/h (1 Bft)
12.01.2014 00:26 2,4 C 1,1 C 94 % 1023,8 hPa 0,0 l/m 0 min 0 min 0,0 UV-I 0 W/m 2,6 km/h (1 Bft)
12.01.2014 00:28 2,4 C 1,1 C 94 % 1023,8 hPa 0,0 l/m 0 min 0 min 0,0 UV-I 0 W/m 0,0 km/h (0 Bft)
12.01.2014 00:30 2,4 C 1,1 C 94 % 1023,8 hPa 0,0 l/m 0 min 0 min 0,0 UV-I 0 W/m 0,0 km/h (0 Bft)
12.01.2014 00:32 2,4 C 1,1 C 94 % 1023,8 hPa 0,0 l/m 0 min 0 min 0,0 UV-I 0 W/m 0,0 km/h (0 Bft)
12.01.2014 00:34 2,4 C 1,1 C 94 % 1023,8 hPa 0,0 l/m 0 min 0 min 0,0 UV-I 0 W/m 2,6 km/h (1 Bft)
12.01.2014 00:36 2,4 C 1,1 C 94 % 1023,8 hPa 0,0 l/m 0 min 0 min 0,0 UV-I 0 W/m 7,7 km/h (2 Bft)
12.01.2014 00:38 2,4 C 0,6 C 94 % 1023,8 hPa 0,0 l/m 0 min 0 min 0,0 UV-I 0 W/m 0,0 km/h (0 Bft)
12.01.2014 00:40 2,4 C 0,6 C 94 % 1023,8 hPa 0,0 l/m 0 min 0 min 0,0 UV-I 0 W/m 0,0 km/h (0 Bft)
12.01.2014 00:42 2,4 C 0,6 C 94 % 1023,8 hPa 0,0 l/m 0 min 0 min 0,0 UV-I 0 W/m 0,0 km/h (0 Bft)
12.01.2014 00:44 2,4 C 0,6 C 94 % 1023,9 hPa 0,0 l/m 0 min 0 min 0,0 UV-I 0 W/m 0,0 km/h (0 Bft)
12.01.2014 00:46 2,4 C 0,6 C 94 % 1023,8 hPa 0,0 l/m 0 min 0 min 0,0 UV-I 0 W/m 0,0 km/h (0 Bft)
12.01.2014 00:48 2,4 C 0,6 C 94 % 1023,8 hPa 0,0 l/m 0 min 0 min 0,0 UV-I 0 W/m 0,0 km/h (0 Bft)
12.01.2014 00:50 2,4 C 0,6 C 94 % 1023,8 hPa 0,0 l/m 0 min 0 min 0,0 UV-I 0 W/m 2,6 km/h (1 Bft)
12.01.2014 00:52 2,4 C 0,6 C 94 % 1023,9 hPa 0,0 l/m 0 min 0 min 0,0 UV-I 0 W/m 0,0 km/h (0 Bft)
12.01.2014 00:54 2,4 C 0,6 C 94 % 1023,9 hPa 0,0 l/m 0 min 0 min 0,0 UV-I 0 W/m 0,0 km/h (0 Bft)
12.01.2014 00:56 2,4 C 0,6 C 94 % 1023,9 hPa 0,0 l/m 0 min 0 min 0,0 UV-I 0 W/m 0,0 km/h (0 Bft)
12.01.2014 00:58 2,4 C 1,1 C 94 % 1023,9 hPa 0,0 l/m 0 min 0 min 0,0 UV-I 0 W/m 2,6 km/h (1 Bft)
12.01.2014 01:00 2,4 C 1,1 C 94 % 1023,9 hPa 0,0 l/m 0 min 0 min 0,0 UV-I 0 W/m 2,6 km/h (1 Bft)
12.01.2014 01:02 2,4 C 1,1 C 94 % 1023,9 hPa 0,0 l/m 0 min 0 min 0,0 UV-I 0 W/m 0,0 km/h (0 Bft)
12.01.2014 01:04 2,4 C 1,1 C 94 % 1023,9 hPa 0,0 l/m 0 min 0 min 0,0 UV-I 0 W/m 5,1 km/h (1 Bft)
12.01.2014 01:06 2,4 C 1,1 C 94 % 1024,0 hPa 0,0 l/m 0 min 0 min 0,0 UV-I 0 W/m 2,6 km/h (1 Bft)
12.01.2014 01:08 2,4 C 1,1 C 94 % 1023,9 hPa 0,0 l/m 0 min 0 min 0,0 UV-I 0 W/m 7,7 km/h (2 Bft)
12.01.2014 01:10 2,4 C 1,1 C 94 % 1024,0 hPa 0,0 l/m 0 min 0 min 0,0 UV-I 0 W/m 10,3 km/h (2 Bft)
12.01.2014 01:12 2,4 C 1,1 C 94 % 1024,0 hPa 0,0 l/m 0 min 0 min 0,0 UV-I 0 W/m 0,0 km/h (0 Bft)
12.01.2014 01:14 2,4 C 1,1 C 94 % 1024,0 hPa 0,0 l/m 0 min 0 min 0,0 UV-I 0 W/m 0,0 km/h (0 Bft)
12.01.2014 01:16 2,4 C 0,6 C 94 % 1023,9 hPa 0,0 l/m 0 min 0 min 0,0 UV-I 0 W/m 0,0 km/h (0 Bft)
12.01.2014 01:18 2,4 C 0,6 C 94 % 1024,0 hPa 0,0 l/m 0 min 0 min 0,0 UV-I 0 W/m 0,0 km/h (0 Bft)
12.01.2014 01:20 2,4 C 1,1 C 94 % 1024,1 hPa 0,0 l/m 0 min 0 min 0,0 UV-I 0 W/m 0,0 km/h (0 Bft)
12.01.2014 01:22 2,4 C 0,6 C 94 % 1024,0 hPa 0,0 l/m 0 min 0 min 0,0 UV-I 0 W/m 0,0 km/h (0 Bft)
12.01.2014 01:24 2,4 C 0,6 C 94 % 1024,1 hPa 0,0 l/m 0 min 0 min 0,0 UV-I 0 W/m 0,0 km/h (0 Bft)
12.01.2014 01:26 2,4 C 0,6 C 94 % 1024,1 hPa 0,0 l/m 0 min 0 min 0,0 UV-I 0 W/m 0,0 km/h (0 Bft)
12.01.2014 01:28 2,4 C 0,6 C 94 % 1024,1 hPa 0,0 l/m 0 min 0 min 0,0 UV-I 0 W/m 0,0 km/h (0 Bft)
12.01.2014 01:30 2,4 C 0,6 C 94 % 1024,1 hPa 0,0 l/m 0 min 0 min 0,0 UV-I 0 W/m 0,0 km/h (0 Bft)
12.01.2014 01:32 2,3 C 0,6 C 94 % 1024,1 hPa 0,0 l/m 0 min 0 min 0,0 UV-I 0 W/m 0,0 km/h (0 Bft)
12.01.2014 01:34 2,3 C 0,6 C 94 % 1024,1 hPa 0,0 l/m 0 min 0 min 0,0 UV-I 0 W/m 0,0 km/h (0 Bft)
12.01.2014 01:36 2,3 C 0,6 C 94 % 1024,2 hPa 0,0 l/m 0 min 0 min 0,0 UV-I 0 W/m 0,0 km/h (0 Bft)
12.01.2014 01:38 2,3 C 0,6 C 94 % 1024,2 hPa 0,0 l/m 0 min 0 min 0,0 UV-I 0 W/m 0,0 km/h (0 Bft)
12.01.2014 01:40 2,3 C 0,6 C 94 % 1024,2 hPa 0,0 l/m 0 min 0 min 0,0 UV-I 0 W/m 7,7 km/h (2 Bft)
12.01.2014 01:42 2,3 C 0,6 C 94 % 1024,2 hPa 0,0 l/m 0 min 0 min 0,0 UV-I 0 W/m 5,1 km/h (1 Bft)
12.01.2014 01:44 2,3 C 0,6 C 94 % 1024,2 hPa 0,0 l/m 0 min 0 min 0,0 UV-I 0 W/m 0,0 km/h (0 Bft)
12.01.2014 01:46 2,3 C 0,6 C 94 % 1024,2 hPa 0,0 l/m 0 min 0 min 0,0 UV-I 0 W/m 0,0 km/h (0 Bft)
12.01.2014 01:48 2,2 C 0,6 C 94 % 1024,2 hPa 0,0 l/m 0 min 0 min 0,0 UV-I 0 W/m 5,1 km/h (1 Bft)
12.01.2014 01:50 2,2 C 0,6 C 94 % 1024,2 hPa 0,0 l/m 0 min 0 min 0,0 UV-I 0 W/m 0,0 km/h (0 Bft)
12.01.2014 01:52 2,2 C 0,6 C 94 % 1024,3 hPa 0,0 l/m 0 min 0 min 0,0 UV-I 0 W/m 0,0 km/h (0 Bft)
12.01.2014 01:54 2,2 C 0,6 C 94 % 1024,2 hPa 0,0 l/m 0 min 0 min 0,0 UV-I 0 W/m 0,0 km/h (0 Bft)
12.01.2014 01:56 2,2 C 0,6 C 94 % 1024,2 hPa 0,0 l/m 0 min 0 min 0,0 UV-I 0 W/m 0,0 km/h (0 Bft)
12.01.2014 01:58 2,2 C 0,6 C 94 % 1024,2 hPa 0,0 l/m 0 min 0 min 0,0 UV-I 0 W/m 5,1 km/h (1 Bft)
12.01.2014 02:00 2,2 C 0,6 C 94 % 1024,2 hPa 0,0 l/m 0 min 0 min 0,0 UV-I 0 W/m 0,0 km/h (0 Bft)
12.01.2014 02:02 2,2 C 0,0 C 94 % 1024,2 hPa 0,0 l/m 0 min 0 min 0,0 UV-I 0 W/m 0,0 km/h (0 Bft)
12.01.2014 02:04 2,2 C 0,0 C 94 % 1024,2 hPa 0,0 l/m 0 min 0 min 0,0 UV-I 0 W/m 0,0 km/h (0 Bft)
12.01.2014 02:06 2,1 C 0,0 C 94 % 1024,3 hPa 0,0 l/m 0 min 0 min 0,0 UV-I 0 W/m 0,0 km/h (0 Bft)
12.01.2014 02:08 2,1 C 0,6 C 94 % 1024,3 hPa 0,0 l/m 0 min 0 min 0,0 UV-I 0 W/m 0,0 km/h (0 Bft)
12.01.2014 02:10 2,1 C 0,6 C 94 % 1024,2 hPa 0,0 l/m 0 min 0 min 0,0 UV-I 0 W/m 0,0 km/h (0 Bft)
12.01.2014 02:12 2,1 C 0,6 C 94 % 1024,2 hPa 0,0 l/m 0 min 0 min 0,0 UV-I 0 W/m 0,0 km/h (0 Bft)
12.01.2014 02:14 2,1 C 0,0 C 94 % 1024,2 hPa 0,0 l/m 0 min 0 min 0,0 UV-I 0 W/m 2,6 km/h (1 Bft)
12.01.2014 02:16 2,1 C 0,0 C 94 % 1024,2 hPa 0,0 l/m 0 min 0 min 0,0 UV-I 0 W/m 2,6 km/h (1 Bft)
12.01.2014 02:18 2,0 C 0,6 C 94 % 1024,2 hPa 0,0 l/m 0 min 0 min 0,0 UV-I 0 W/m 0,0 km/h (0 Bft)
12.01.2014 02:20 2,0 C 0,0 C 94 % 1024,3 hPa 0,0 l/m 0 min 0 min 0,0 UV-I 0 W/m 0,0 km/h (0 Bft)
12.01.2014 02:22 2,0 C 0,0 C 94 % 1024,3 hPa 0,0 l/m 0 min 0 min 0,0 UV-I 0 W/m 0,0 km/h (0 Bft)
12.01.2014 02:24 2,0 C 0,0 C 94 % 1024,3 hPa 0,0 l/m 0 min 0 min 0,0 UV-I 0 W/m 0,0 km/h (0 Bft)
12.01.2014 02:26 1,9 C 0,0 C 94 % 1024,3 hPa 0,0 l/m 0 min 0 min 0,0 UV-I 0 W/m 0,0 km/h (0 Bft)
12.01.2014 02:28 1,9 C 0,0 C 94 % 1024,3 hPa 0,0 l/m 0 min 0 min 0,0 UV-I 0 W/m 0,0 km/h (0 Bft)
12.01.2014 02:30 1,9 C 0,0 C 94 % 1024,3 hPa 0,0 l/m 0 min 0 min 0,0 UV-I 0 W/m 0,0 km/h (0 Bft)
12.01.2014 02:32 1,9 C 0,0 C 94 % 1024,3 hPa 0,0 l/m 0 min 0 min 0,0 UV-I 0 W/m 0,0 km/h (0 Bft)
12.01.2014 02:34 1,9 C 0,0 C 94 % 1024,3 hPa 0,0 l/m 0 min 0 min 0,0 UV-I 0 W/m 0,0 km/h (0 Bft)
12.01.2014 02:36 1,9 C 0,0 C 94 % 1024,3 hPa 0,0 l/m 0 min 0 min 0,0 UV-I 0 W/m 0,0 km/h (0 Bft)
12.01.2014 02:38 1,8 C 0,0 C 94 % 1024,3 hPa 0,0 l/m 0 min 0 min 0,0 UV-I 0 W/m 0,0 km/h (0 Bft)
12.01.2014 02:40 1,8 C 0,0 C 94 % 1024,4 hPa 0,0 l/m 0 min 0 min 0,0 UV-I 0 W/m 0,0 km/h (0 Bft)
12.01.2014 02:42 1,8 C 0,0 C 94 % 1024,3 hPa 0,0 l/m 0 min 0 min 0,0 UV-I 0 W/m 0,0 km/h (0 Bft)
12.01.2014 02:44 1,8 C 0,0 C 94 % 1024,4 hPa 0,0 l/m 0 min 0 min 0,0 UV-I 0 W/m 0,0 km/h (0 Bft)
12.01.2014 02:46 1,8 C -0,6 C 94 % 1024,4 hPa 0,0 l/m 0 min 0 min 0,0 UV-I 0 W/m 0,0 km/h (0 Bft)
12.01.2014 02:48 1,8 C -0,6 C 94 % 1024,5 hPa 0,0 l/m 0 min 0 min 0,0 UV-I 0 W/m 0,0 km/h (0 Bft)
12.01.2014 02:50 1,8 C -0,6 C 94 % 1024,4 hPa 0,0 l/m 0 min 0 min 0,0 UV-I 0 W/m 0,0 km/h (0 Bft)
12.01.2014 02:52 1,7 C -0,6 C 94 % 1024,5 hPa 0,0 l/m 0 min 0 min 0,0 UV-I 0 W/m 0,0 km/h (0 Bft)
12.01.2014 02:54 1,7 C -0,6 C 94 % 1024,5 hPa 0,0 l/m 0 min 0 min 0,0 UV-I 0 W/m 0,0 km/h (0 Bft)
12.01.2014 02:56 1,7 C -0,6 C 94 % 1024,4 hPa 0,0 l/m 0 min 0 min 0,0 UV-I 0 W/m 0,0 km/h (0 Bft)
12.01.2014 02:58 1,7 C -0,6 C 94 % 1024,4 hPa 0,0 l/m 0 min 0 min 0,0 UV-I 0 W/m 0,0 km/h (0 Bft)
12.01.2014 03:00 1,7 C -0,6 C 94 % 1024,4 hPa 0,0 l/m 0 min 0 min 0,0 UV-I 0 W/m 0,0 km/h (0 Bft)
12.01.2014 03:02 1,6 C -0,6 C 94 % 1024,5 hPa 0,0 l/m 0 min 0 min 0,0 UV-I 0 W/m 0,0 km/h (0 Bft)
12.01.2014 03:04 1,6 C -1,1 C 94 % 1024,6 hPa 0,0 l/m 0 min 0 min 0,0 UV-I 0 W/m 0,0 km/h (0 Bft)
12.01.2014 03:06 1,6 C -1,1 C 94 % 1024,6 hPa 0,0 l/m 0 min 0 min 0,0 UV-I 0 W/m 0,0 km/h (0 Bft)
12.01.2014 03:08 1,6 C -1,1 C 94 % 1024,7 hPa 0,0 l/m 0 min 0 min 0,0 UV-I 0 W/m 0,0 km/h (0 Bft)
12.01.2014 03:10 1,5 C -1,1 C 94 % 1024,7 hPa 0,0 l/m 0 min 0 min 0,0 UV-I 0 W/m 0,0 km/h (0 Bft)
12.01.2014 03:12 1,5 C -1,1 C 94 % 1024,7 hPa 0,0 l/m 0 min 0 min 0,0 UV-I 0 W/m 0,0 km/h (0 Bft)
12.01.2014 03:14 1,4 C -1,1 C 94 % 1024,7 hPa 0,0 l/m 0 min 0 min 0,0 UV-I 0 W/m 0,0 km/h (0 Bft)
12.01.2014 03:16 1,4 C -1,1 C 94 % 1024,7 hPa 0,0 l/m 0 min 0 min 0,0 UV-I 0 W/m 0,0 km/h (0 Bft)
12.01.2014 03:18 1,4 C -1,1 C 94 % 1024,8 hPa 0,0 l/m 0 min 0 min 0,0 UV-I 0 W/m 0,0 km/h (0 Bft)
12.01.2014 03:20 1,4 C -0,6 C 94 % 1024,8 hPa 0,0 l/m 0 min 0 min 0,0 UV-I 0 W/m 0,0 km/h (0 Bft)
12.01.2014 03:22 1,3 C -0,6 C 94 % 1024,8 hPa 0,0 l/m 0 min 0 min 0,0 UV-I 0 W/m 7,7 km/h (2 Bft)
12.01.2014 03:24 1,3 C -0,6 C 94 % 1024,8 hPa 0,0 l/m 0 min 0 min 0,0 UV-I 0 W/m 0,0 km/h (0 Bft)
12.01.2014 03:26 1,3 C 0,0 C 94 % 1024,8 hPa 0,0 l/m 0 min 0 min 0,0 UV-I 0 W/m 5,1 km/h (1 Bft)
12.01.2014 03:28 1,3 C 0,0 C 94 % 1024,8 hPa 0,0 l/m 0 min 0 min 0,0 UV-I 0 W/m 0,0 km/h (0 Bft)
12.01.2014 03:30 1,3 C 0,0 C 94 % 1024,8 hPa 0,0 l/m 0 min 0 min 0,0 UV-I 0 W/m 0,0 km/h (0 Bft)
12.01.2014 03:32 1,2 C -0,6 C 94 % 1024,8 hPa 0,0 l/m 0 min 0 min 0,0 UV-I 0 W/m 0,0 km/h (0 Bft)
12.01.2014 03:34 1,2 C -0,6 C 94 % 1024,8 hPa 0,0 l/m 0 min 0 min 0,0 UV-I 0 W/m 0,0 km/h (0 Bft)
12.01.2014 03:36 1,2 C -0,6 C 94 % 1024,8 hPa 0,0 l/m 0 min 0 min 0,0 UV-I 0 W/m 0,0 km/h (0 Bft)
12.01.2014 03:38 1,2 C 0,0 C 94 % 1024,8 hPa 0,0 l/m 0 min 0 min 0,0 UV-I 0 W/m 0,0 km/h (0 Bft)
12.01.2014 03:40 1,2 C -0,6 C 94 % 1024,8 hPa 0,0 l/m 0 min 0 min 0,0 UV-I 0 W/m 0,0 km/h (0 Bft)
12.01.2014 03:42 1,2 C -0,6 C 94 % 1024,8 hPa 0,0 l/m 0 min 0 min 0,0 UV-I 0 W/m 0,0 km/h (0 Bft)
12.01.2014 03:44 1,2 C -0,6 C 94 % 1024,9 hPa 0,0 l/m 0 min 0 min 0,0 UV-I 0 W/m 0,0 km/h (0 Bft)
12.01.2014 03:46 1,2 C -0,6 C 94 % 1024,9 hPa 0,0 l/m 0 min 0 min 0,0 UV-I 0 W/m 0,0 km/h (0 Bft)
12.01.2014 03:48 1,2 C -0,6 C 94 % 1025,0 hPa 0,0 l/m 0 min 0 min 0,0 UV-I 0 W/m 0,0 km/h (0 Bft)
12.01.2014 03:50 1,2 C -0,6 C 94 % 1025,0 hPa 0,0 l/m 0 min 0 min 0,0 UV-I 0 W/m 0,0 km/h (0 Bft)
12.01.2014 03:52 1,2 C -0,6 C 94 % 1025,0 hPa 0,0 l/m 0 min 0 min 0,0 UV-I 0 W/m 0,0 km/h (0 Bft)
12.01.2014 03:54 1,2 C -0,6 C 95 % 1025,0 hPa 0,0 l/m 0 min 0 min 0,0 UV-I 0 W/m 0,0 km/h (0 Bft)
12.01.2014 03:56 1,1 C -0,6 C 95 % 1024,9 hPa 0,0 l/m 0 min 0 min 0,0 UV-I 0 W/m 0,0 km/h (0 Bft)
12.01.2014 03:58 1,1 C -0,6 C 95 % 1024,9 hPa 0,0 l/m 0 min 0 min 0,0 UV-I 0 W/m 0,0 km/h (0 Bft)
12.01.2014 04:00 1,1 C -0,6 C 95 % 1024,9 hPa 0,0 l/m 0 min 0 min 0,0 UV-I 0 W/m 0,0 km/h (0 Bft)
12.01.2014 04:02 1,1 C -0,6 C 94 % 1025,0 hPa 0,0 l/m 0 min 0 min 0,0 UV-I 0 W/m 0,0 km/h (0 Bft)
12.01.2014 04:04 1,1 C -1,1 C 94 % 1025,0 hPa 0,0 l/m 0 min 0 min 0,0 UV-I 0 W/m 0,0 km/h (0 Bft)
12.01.2014 04:06 1,1 C -1,1 C 94 % 1025,0 hPa 0,0 l/m 0 min 0 min 0,0 UV-I 0 W/m 0,0 km/h (0 Bft)
12.01.2014 04:08 1,1 C -1,1 C 94 % 1025,0 hPa 0,0 l/m 0 min 0 min 0,0 UV-I 0 W/m 0,0 km/h (0 Bft)
12.01.2014 04:10 1,1 C -1,1 C 94 % 1024,9 hPa 0,0 l/m 0 min 0 min 0,0 UV-I 0 W/m 0,0 km/h (0 Bft)
12.01.2014 04:12 1,0 C -1,1 C 94 % 1024,9 hPa 0,0 l/m 0 min 0 min 0,0 UV-I 0 W/m 0,0 km/h (0 Bft)
12.01.2014 04:14 1,0 C -1,1 C 94 % 1025,1 hPa 0,0 l/m 0 min 0 min 0,0 UV-I 0 W/m 0,0 km/h (0 Bft)
12.01.2014 04:16 1,0 C -0,6 C 94 % 1025,1 hPa 0,0 l/m 0 min 0 min 0,0 UV-I 0 W/m 0,0 km/h (0 Bft)
12.01.2014 04:18 0,9 C -0,6 C 94 % 1025,1 hPa 0,0 l/m 0 min 0 min 0,0 UV-I 0 W/m 0,0 km/h (0 Bft)
12.01.2014 04:20 0,9 C -1,1 C 94 % 1025,1 hPa 0,0 l/m 0 min 0 min 0,0 UV-I 0 W/m 0,0 km/h (0 Bft)
12.01.2014 04:22 0,9 C -1,1 C 95 % 1025,1 hPa 0,0 l/m 0 min 0 min 0,0 UV-I 0 W/m 0,0 km/h (0 Bft)
12.01.2014 04:24 0,9 C -1,1 C 95 % 1025,1 hPa 0,0 l/m 0 min 0 min 0,0 UV-I 0 W/m 0,0 km/h (0 Bft)
12.01.2014 04:26 0,9 C -0,6 C 95 % 1025,0 hPa 0,0 l/m 0 min 0 min 0,0 UV-I 0 W/m 0,0 km/h (0 Bft)
12.01.2014 04:28 0,9 C -0,6 C 95 % 1025,1 hPa 0,0 l/m 0 min 0 min 0,0 UV-I 0 W/m 0,0 km/h (0 Bft)
12.01.2014 04:30 0,9 C -0,6 C 95 % 1025,0 hPa 0,0 l/m 0 min 0 min 0,0 UV-I 0 W/m 0,0 km/h (0 Bft)
12.01.2014 04:32 0,9 C -0,6 C 95 % 1025,0 hPa 0,0 l/m 0 min 0 min 0,0 UV-I 0 W/m 0,0 km/h (0 Bft)
12.01.2014 04:34 0,9 C -0,6 C 95 % 1025,1 hPa 0,0 l/m 0 min 0 min 0,0 UV-I 0 W/m 0,0 km/h (0 Bft)
12.01.2014 04:36 0,9 C -0,6 C 95 % 1025,0 hPa 0,0 l/m 0 min 0 min 0,0 UV-I 0 W/m 0,0 km/h (0 Bft)
12.01.2014 04:38 0,9 C -0,6 C 95 % 1025,0 hPa 0,0 l/m 0 min 0 min 0,0 UV-I 0 W/m 0,0 km/h (0 Bft)
12.01.2014 04:40 0,9 C -0,6 C 95 % 1025,0 hPa 0,0 l/m 0 min 0 min 0,0 UV-I 0 W/m 0,0 km/h (0 Bft)
12.01.2014 04:42 0,9 C -0,6 C 95 % 1025,0 hPa 0,0 l/m 0 min 0 min 0,0 UV-I 0 W/m 0,0 km/h (0 Bft)
12.01.2014 04:44 0,9 C -0,6 C 95 % 1025,0 hPa 0,0 l/m 0 min 0 min 0,0 UV-I 0 W/m 2,6 km/h (1 Bft)
12.01.2014 04:46 0,9 C -0,6 C 95 % 1025,1 hPa 0,0 l/m 0 min 0 min 0,0 UV-I 0 W/m 0,0 km/h (0 Bft)
12.01.2014 04:48 0,8 C -0,6 C 95 % 1025,1 hPa 0,0 l/m 0 min 0 min 0,0 UV-I 0 W/m 0,0 km/h (0 Bft)
12.01.2014 04:50 0,8 C -0,6 C 95 % 1025,1 hPa 0,0 l/m 0 min 0 min 0,0 UV-I 0 W/m 0,0 km/h (0 Bft)
12.01.2014 04:52 0,8 C -1,1 C 95 % 1025,0 hPa 0,0 l/m 0 min 0 min 0,0 UV-I 0 W/m 0,0 km/h (0 Bft)
12.01.2014 04:54 0,8 C -1,1 C 95 % 1025,0 hPa 0,0 l/m 0 min 0 min 0,0 UV-I 0 W/m 0,0 km/h (0 Bft)
12.01.2014 04:56 0,8 C -1,1 C 95 % 1025,0 hPa 0,0 l/m 0 min 0 min 0,0 UV-I 0 W/m 5,1 km/h (1 Bft)
12.01.2014 04:58 0,8 C -1,1 C 95 % 1025,0 hPa 0,0 l/m 0 min 0 min 0,0 UV-I 0 W/m 2,6 km/h (1 Bft)
12.01.2014 05:00 0,8 C -1,1 C 95 % 1025,0 hPa 0,0 l/m 0 min 0 min 0,0 UV-I 0 W/m 0,0 km/h (0 Bft)
12.01.2014 05:02 0,8 C -1,1 C 95 % 1025,1 hPa 0,0 l/m 0 min 0 min 0,0 UV-I 0 W/m 0,0 km/h (0 Bft)
12.01.2014 05:04 0,8 C -1,1 C 95 % 1025,0 hPa 0,0 l/m 0 min 0 min 0,0 UV-I 0 W/m 0,0 km/h (0 Bft)
12.01.2014 05:06 0,8 C -1,1 C 95 % 1025,0 hPa 0,0 l/m 0 min 0 min 0,0 UV-I 0 W/m 0,0 km/h (0 Bft)
12.01.2014 05:08 0,8 C -1,1 C 95 % 1025,0 hPa 0,0 l/m 0 min 0 min 0,0 UV-I 0 W/m 0,0 km/h (0 Bft)
12.01.2014 05:10 0,7 C -1,1 C 95 % 1025,0 hPa 0,0 l/m 0 min 0 min 0,0 UV-I 0 W/m 0,0 km/h (0 Bft)
12.01.2014 05:12 0,7 C -1,1 C 95 % 1025,0 hPa 0,0 l/m 0 min 0 min 0,0 UV-I 0 W/m 0,0 km/h (0 Bft)
12.01.2014 05:14 0,7 C -1,1 C 95 % 1024,9 hPa 0,0 l/m 0 min 0 min 0,0 UV-I 0 W/m 0,0 km/h (0 Bft)
12.01.2014 05:16 0,7 C -1,1 C 95 % 1025,0 hPa 0,0 l/m 0 min 0 min 0,0 UV-I 0 W/m 0,0 km/h (0 Bft)
12.01.2014 05:18 0,7 C -1,1 C 95 % 1025,0 hPa 0,0 l/m 0 min 0 min 0,0 UV-I 0 W/m 0,0 km/h (0 Bft)
12.01.2014 05:20 0,7 C -1,7 C 95 % 1025,1 hPa 0,0 l/m 0 min 0 min 0,0 UV-I 0 W/m 0,0 km/h (0 Bft)
12.01.2014 05:22 0,6 C -1,7 C 95 % 1025,1 hPa 0,0 l/m 0 min 0 min 0,0 UV-I 0 W/m 0,0 km/h (0 Bft)
12.01.2014 05:24 0,6 C -1,7 C 95 % 1025,0 hPa 0,0 l/m 0 min 0 min 0,0 UV-I 0 W/m 0,0 km/h (0 Bft)
12.01.2014 05:26 0,6 C -1,7 C 95 % 1025,0 hPa 0,0 l/m 0 min 0 min 0,0 UV-I 0 W/m 0,0 km/h (0 Bft)
12.01.2014 05:28 0,6 C -1,7 C 95 % 1025,0 hPa 0,0 l/m 0 min 0 min 0,0 UV-I 0 W/m 0,0 km/h (0 Bft)
12.01.2014 05:30 0,6 C -1,7 C 95 % 1024,9 hPa 0,0 l/m 0 min 0 min 0,0 UV-I 0 W/m 0,0 km/h (0 Bft)
12.01.2014 05:32 0,5 C -1,7 C 95 % 1025,0 hPa 0,0 l/m 0 min 0 min 0,0 UV-I 0 W/m 0,0 km/h (0 Bft)
12.01.2014 05:34 0,5 C -1,7 C 95 % 1025,0 hPa 0,0 l/m 0 min 0 min 0,0 UV-I 0 W/m 0,0 km/h (0 Bft)
12.01.2014 05:36 0,5 C -1,7 C 95 % 1025,0 hPa 0,0 l/m 0 min 0 min 0,0 UV-I 0 W/m 0,0 km/h (0 Bft)
12.01.2014 05:38 0,5 C -1,1 C 95 % 1025,1 hPa 0,0 l/m 0 min 0 min 0,0 UV-I 0 W/m 0,0 km/h (0 Bft)
12.01.2014 05:40 0,5 C -1,1 C 95 % 1025,0 hPa 0,0 l/m 0 min 0 min 0,0 UV-I 0 W/m 0,0 km/h (0 Bft)
12.01.2014 05:42 0,5 C -1,1 C 95 % 1025,1 hPa 0,0 l/m 0 min 0 min 0,0 UV-I 0 W/m 0,0 km/h (0 Bft)
12.01.2014 05:44 0,5 C -1,1 C 95 % 1025,0 hPa 0,0 l/m 0 min 0 min 0,0 UV-I 0 W/m 0,0 km/h (0 Bft)
12.01.2014 05:46 0,5 C -1,1 C 95 % 1025,0 hPa 0,0 l/m 0 min 0 min 0,0 UV-I 0 W/m 0,0 km/h (0 Bft)
12.01.2014 05:48 0,5 C -1,1 C 95 % 1025,0 hPa 0,0 l/m 0 min 0 min 0,0 UV-I 0 W/m 0,0 km/h (0 Bft)
12.01.2014 05:50 0,5 C -1,1 C 95 % 1025,0 hPa 0,0 l/m 0 min 0 min 0,0 UV-I 0 W/m 0,0 km/h (0 Bft)
12.01.2014 05:52 0,5 C -1,1 C 95 % 1025,0 hPa 0,0 l/m 0 min 0 min 0,0 UV-I 0 W/m 0,0 km/h (0 Bft)
12.01.2014 05:54 0,5 C -0,6 C 95 % 1025,1 hPa 0,0 l/m 0 min 0 min 0,0 UV-I 0 W/m 2,6 km/h (1 Bft)
12.01.2014 05:56 0,5 C -0,6 C 95 % 1025,0 hPa 0,0 l/m 0 min 0 min 0,0 UV-I 0 W/m 0,0 km/h (0 Bft)
12.01.2014 05:58 0,5 C -0,6 C 95 % 1025,0 hPa 0,0 l/m 0 min 0 min 0,0 UV-I 0 W/m 0,0 km/h (0 Bft)
12.01.2014 06:00 0,5 C -0,6 C 95 % 1025,0 hPa 0,0 l/m 0 min 0 min 0,0 UV-I 0 W/m 0,0 km/h (0 Bft)
12.01.2014 06:02 0,5 C -0,6 C 95 % 1024,9 hPa 0,0 l/m 0 min 0 min 0,0 UV-I 0 W/m 0,0 km/h (0 Bft)
12.01.2014 06:04 0,5 C -0,6 C 95 % 1025,0 hPa 0,0 l/m 0 min 0 min 0,0 UV-I 0 W/m 0,0 km/h (0 Bft)
12.01.2014 06:06 0,5 C -0,6 C 95 % 1025,0 hPa 0,0 l/m 0 min 0 min 0,0 UV-I 0 W/m 0,0 km/h (0 Bft)
12.01.2014 06:08 0,5 C -0,6 C 95 % 1025,0 hPa 0,0 l/m 0 min 0 min 0,0 UV-I 0 W/m 0,0 km/h (0 Bft)
12.01.2014 06:10 0,6 C -0,6 C 95 % 1025,0 hPa 0,0 l/m 0 min 0 min 0,0 UV-I 0 W/m 0,0 km/h (0 Bft)
12.01.2014 06:12 0,6 C -0,6 C 95 % 1025,1 hPa 0,0 l/m 0 min 0 min 0,0 UV-I 0 W/m 0,0 km/h (0 Bft)
12.01.2014 06:14 0,6 C -0,6 C 95 % 1025,1 hPa 0,0 l/m 0 min 0 min 0,0 UV-I 0 W/m 0,0 km/h (0 Bft)
12.01.2014 06:16 0,6 C -0,6 C 95 % 1025,1 hPa 0,2 l/m 0 min 0 min 0,0 UV-I 0 W/m 0,0 km/h (0 Bft)
12.01.2014 06:18 0,6 C -0,6 C 95 % 1025,0 hPa 0,0 l/m 0 min 0 min 0,0 UV-I 0 W/m 0,0 km/h (0 Bft)
12.01.2014 06:20 0,6 C -0,6 C 96 % 1025,0 hPa 0,0 l/m 0 min 0 min 0,0 UV-I 0 W/m 0,0 km/h (0 Bft)
12.01.2014 06:22 0,6 C -0,6 C 96 % 1025,0 hPa 0,0 l/m 0 min 0 min 0,0 UV-I 0 W/m 0,0 km/h (0 Bft)
12.01.2014 06:24 0,6 C -0,6 C 96 % 1025,1 hPa 0,0 l/m 0 min 0 min 0,0 UV-I 0 W/m 0,0 km/h (0 Bft)
12.01.2014 06:26 0,6 C -0,6 C 96 % 1025,1 hPa 0,0 l/m 0 min 0 min 0,0 UV-I 0 W/m 0,0 km/h (0 Bft)
12.01.2014 06:28 0,6 C -0,6 C 96 % 1025,1 hPa 0,0 l/m 0 min 0 min 0,0 UV-I 0 W/m 2,6 km/h (1 Bft)
12.01.2014 06:30 0,6 C -0,6 C 96 % 1025,1 hPa 0,0 l/m 0 min 0 min 0,0 UV-I 0 W/m 0,0 km/h (0 Bft)
12.01.2014 06:32 0,6 C -0,6 C 96 % 1025,0 hPa 0,0 l/m 0 min 0 min 0,0 UV-I 0 W/m 0,0 km/h (0 Bft)
12.01.2014 06:34 0,6 C -1,1 C 96 % 1025,0 hPa 0,0 l/m 0 min 0 min 0,0 UV-I 0 W/m 0,0 km/h (0 Bft)
12.01.2014 06:36 0,6 C -1,1 C 96 % 1025,0 hPa 0,0 l/m 0 min 0 min 0,0 UV-I 0 W/m 0,0 km/h (0 Bft)
12.01.2014 06:38 0,6 C -1,1 C 96 % 1025,0 hPa 0,0 l/m 0 min 0 min 0,0 UV-I 0 W/m 0,0 km/h (0 Bft)
12.01.2014 06:40 0,6 C -1,1 C 96 % 1025,0 hPa 0,0 l/m 0 min 0 min 0,0 UV-I 0 W/m 0,0 km/h (0 Bft)
12.01.2014 06:42 0,6 C -1,1 C 96 % 1025,0 hPa 0,0 l/m 0 min 0 min 0,0 UV-I 0 W/m 0,0 km/h (0 Bft)
12.01.2014 06:44 0,6 C -1,1 C 96 % 1025,0 hPa 0,0 l/m 0 min 0 min 0,0 UV-I 0 W/m 0,0 km/h (0 Bft)
12.01.2014 06:46 0,6 C -1,1 C 96 % 1024,9 hPa 0,0 l/m 0 min 0 min 0,0 UV-I 0 W/m 0,0 km/h (0 Bft)
12.01.2014 06:48 0,6 C -1,1 C 96 % 1025,0 hPa 0,0 l/m 0 min 0 min 0,0 UV-I 0 W/m 0,0 km/h (0 Bft)
12.01.2014 06:50 0,6 C -1,1 C 96 % 1024,9 hPa 0,0 l/m 0 min 0 min 0,0 UV-I 0 W/m 0,0 km/h (0 Bft)
12.01.2014 06:52 0,6 C -1,1 C 96 % 1024,9 hPa 0,0 l/m 0 min 0 min 0,0 UV-I 0 W/m 0,0 km/h (0 Bft)
12.01.2014 06:54 0,5 C -1,7 C 96 % 1024,8 hPa 0,0 l/m 0 min 0 min 0,0 UV-I 0 W/m 0,0 km/h (0 Bft)
12.01.2014 06:56 0,6 C -1,7 C 96 % 1024,9 hPa 0,0 l/m 0 min 0 min 0,0 UV-I 0 W/m 0,0 km/h (0 Bft)
12.01.2014 06:58 0,6 C -1,7 C 96 % 1024,9 hPa 0,0 l/m 0 min 0 min 0,0 UV-I 0 W/m 0,0 km/h (0 Bft)
12.01.2014 07:00 0,5 C -1,7 C 96 % 1024,9 hPa 0,0 l/m 0 min 0 min 0,0 UV-I 0 W/m 0,0 km/h (0 Bft)
12.01.2014 07:02 0,5 C -1,7 C 96 % 1025,0 hPa 0,0 l/m 0 min 0 min 0,0 UV-I 0 W/m 0,0 km/h (0 Bft)
12.01.2014 07:04 0,5 C -1,7 C 96 % 1024,9 hPa 0,0 l/m 0 min 0 min 0,0 UV-I 0 W/m 0,0 km/h (0 Bft)
12.01.2014 07:06 0,5 C -1,7 C 96 % 1024,9 hPa 0,0 l/m 0 min 0 min 0,0 UV-I 0 W/m 0,0 km/h (0 Bft)
12.01.2014 07:08 0,5 C -2,2 C 96 % 1024,8 hPa 0,0 l/m 0 min 0 min 0,0 UV-I 0 W/m 0,0 km/h (0 Bft)
12.01.2014 07:10 0,5 C -2,2 C 96 % 1024,9 hPa 0,0 l/m 0 min 0 min 0,0 UV-I 0 W/m 0,0 km/h (0 Bft)
12.01.2014 07:12 0,5 C -2,2 C 96 % 1024,9 hPa 0,0 l/m 0 min 0 min 0,0 UV-I 0 W/m 0,0 km/h (0 Bft)
12.01.2014 07:14 0,5 C -2,2 C 96 % 1024,9 hPa 0,0 l/m 0 min 0 min 0,0 UV-I 0 W/m 0,0 km/h (0 Bft)
12.01.2014 07:16 0,4 C -2,2 C 96 % 1024,9 hPa 0,0 l/m 0 min 0 min 0,0 UV-I 0 W/m 0,0 km/h (0 Bft)
12.01.2014 07:18 0,4 C -2,2 C 96 % 1024,9 hPa 0,0 l/m 0 min 0 min 0,0 UV-I 0 W/m 0,0 km/h (0 Bft)
12.01.2014 07:20 0,4 C -2,2 C 96 % 1024,9 hPa 0,0 l/m 0 min 0 min 0,0 UV-I 0 W/m 0,0 km/h (0 Bft)
12.01.2014 07:22 0,4 C -2,2 C 96 % 1024,9 hPa 0,0 l/m 0 min 0 min 0,0 UV-I 0 W/m 0,0 km/h (0 Bft)
12.01.2014 07:24 0,3 C -2,2 C 96 % 1024,9 hPa 0,0 l/m 0 min 0 min 0,0 UV-I 0 W/m 0,0 km/h (0 Bft)
12.01.2014 07:26 0,3 C -2,2 C 96 % 1024,9 hPa 0,0 l/m 0 min 0 min 0,0 UV-I 0 W/m 0,0 km/h (0 Bft)
12.01.2014 07:28 0,3 C -1,7 C 96 % 1024,9 hPa 0,0 l/m 0 min 0 min 0,0 UV-I 0 W/m 0,0 km/h (0 Bft)
12.01.2014 07:30 0,3 C -1,7 C 96 % 1024,8 hPa 0,0 l/m 0 min 0 min 0,0 UV-I 0 W/m 0,0 km/h (0 Bft)
12.01.2014 07:32 0,2 C -1,7 C 96 % 1024,9 hPa 0,0 l/m 0 min 0 min 0,0 UV-I 0 W/m 0,0 km/h (0 Bft)
12.01.2014 07:34 0,2 C -1,7 C 96 % 1024,8 hPa 0,0 l/m 0 min 0 min 0,0 UV-I 0 W/m 0,0 km/h (0 Bft)
12.01.2014 07:36 0,2 C -1,7 C 96 % 1024,9 hPa 0,0 l/m 0 min 0 min 0,0 UV-I 0 W/m 0,0 km/h (0 Bft)
12.01.2014 07:38 0,2 C -1,7 C 96 % 1024,9 hPa 0,0 l/m 0 min 0 min 0,0 UV-I 0 W/m 0,0 km/h (0 Bft)
12.01.2014 07:40 0,2 C -1,7 C 96 % 1024,8 hPa 0,0 l/m 0 min 0 min 0,0 UV-I 0 W/m 0,0 km/h (0 Bft)
12.01.2014 07:42 0,2 C -1,7 C 100 % 1024,8 hPa 0,0 l/m 0 min 0 min 0,0 UV-I 0 W/m 0,0 km/h (0 Bft)
12.01.2014 07:44 0,2 C -1,7 C 100 % 1024,7 hPa 0,0 l/m 0 min 0 min 0,0 UV-I 0 W/m 0,0 km/h (0 Bft)
12.01.2014 07:46 0,2 C -1,7 C 96 % 1024,7 hPa 0,0 l/m 0 min 0 min 0,0 UV-I 0 W/m 0,0 km/h (0 Bft)
12.01.2014 07:48 0,2 C -1,7 C 96 % 1024,7 hPa 0,0 l/m 0 min 0 min 0,0 UV-I 0 W/m 0,0 km/h (0 Bft)
12.01.2014 07:50 0,1 C -1,7 C 96 % 1024,7 hPa 0,0 l/m 0 min 0 min 0,0 UV-I 0 W/m 0,0 km/h (0 Bft)
12.01.2014 07:52 0,1 C -1,7 C 96 % 1024,7 hPa 0,0 l/m 0 min 0 min 0,0 UV-I 0 W/m 0,0 km/h (0 Bft)
12.01.2014 07:54 0,1 C -1,7 C 96 % 1024,8 hPa 0,0 l/m 0 min 0 min 0,0 UV-I 0 W/m 0,0 km/h (0 Bft)
12.01.2014 07:56 0,1 C -1,7 C 96 % 1024,7 hPa 0,0 l/m 0 min 0 min 0,0 UV-I 0 W/m 0,0 km/h (0 Bft)
12.01.2014 07:58 0,1 C -2,2 C 96 % 1024,7 hPa 0,0 l/m 0 min 0 min 0,0 UV-I 0 W/m 0,0 km/h (0 Bft)
12.01.2014 08:00 0,1 C -2,2 C 96 % 1024,7 hPa 0,0 l/m 0 min 0 min 0,0 UV-I 0 W/m 0,0 km/h (0 Bft)
12.01.2014 08:02 0,1 C -2,2 C 96 % 1024,7 hPa 0,0 l/m 0 min 0 min 0,0 UV-I 0 W/m 0,0 km/h (0 Bft)
12.01.2014 08:04 0,1 C -2,2 C 96 % 1024,7 hPa 0,0 l/m 0 min 0 min 0,0 UV-I 0 W/m 0,0 km/h (0 Bft)
12.01.2014 08:06 0,1 C -2,2 C 96 % 1024,7 hPa 0,0 l/m 0 min 0 min 0,0 UV-I 0 W/m 0,0 km/h (0 Bft)
12.01.2014 08:08 0,1 C -2,2 C 96 % 1024,7 hPa 0,0 l/m 0 min 0 min 0,0 UV-I 0 W/m 0,0 km/h (0 Bft)
12.01.2014 08:10 0,1 C -2,2 C 96 % 1024,6 hPa 0,0 l/m 0 min 0 min 0,0 UV-I 0 W/m 0,0 km/h (0 Bft)
12.01.2014 08:12 0,1 C -2,2 C 96 % 1024,6 hPa 0,0 l/m 0 min 0 min 0,0 UV-I 0 W/m 0,0 km/h (0 Bft)
12.01.2014 08:14 0,1 C -2,2 C 96 % 1024,7 hPa 0,0 l/m 0 min 0 min 0,0 UV-I 0 W/m 0,0 km/h (0 Bft)
12.01.2014 08:16 0,0 C -2,2 C 96 % 1024,7 hPa 0,0 l/m 0 min 0 min 0,0 UV-I 0 W/m 0,0 km/h (0 Bft)
12.01.2014 08:18 0,0 C -2,2 C 96 % 1024,7 hPa 0,0 l/m 0 min 0 min 0,0 UV-I 0 W/m 0,0 km/h (0 Bft)
12.01.2014 08:20 0,0 C -2,2 C 96 % 1024,7 hPa 0,0 l/m 0 min 0 min 0,0 UV-I 0 W/m 0,0 km/h (0 Bft)
12.01.2014 08:22 -0,1 C -2,2 C 96 % 1024,7 hPa 0,0 l/m 0 min 0 min 0,0 UV-I 0 W/m 0,0 km/h (0 Bft)
12.01.2014 08:24 -0,1 C -2,2 C 96 % 1024,7 hPa 0,0 l/m 0 min 0 min 0,0 UV-I 0 W/m 0,0 km/h (0 Bft)
12.01.2014 08:26 -0,1 C -2,2 C 96 % 1024,6 hPa 0,0 l/m 0 min 0 min 0,0 UV-I 0 W/m 0,0 km/h (0 Bft)
12.01.2014 08:28 -0,1 C -2,2 C 96 % 1024,5 hPa 0,0 l/m 0 min 0 min 0,0 UV-I 0 W/m 0,0 km/h (0 Bft)
12.01.2014 08:30 -0,1 C -2,2 C 96 % 1024,6 hPa 0,0 l/m 0 min 0 min 0,0 UV-I 0 W/m 0,0 km/h (0 Bft)
12.01.2014 08:32 -0,1 C -2,2 C 96 % 1024,7 hPa 0,0 l/m 0 min 0 min 0,0 UV-I 5 W/m 0,0 km/h (0 Bft)
12.01.2014 08:34 -0,1 C -2,2 C 96 % 1024,7 hPa 0,0 l/m 0 min 0 min 0,0 UV-I 5 W/m 0,0 km/h (0 Bft)
12.01.2014 08:36 -0,2 C -2,2 C 96 % 1024,7 hPa 0,0 l/m 0 min 0 min 0,0 UV-I 5 W/m 0,0 km/h (0 Bft)
12.01.2014 08:38 -0,2 C -2,2 C 96 % 1024,6 hPa 0,0 l/m 0 min 0 min 0,0 UV-I 5 W/m 0,0 km/h (0 Bft)
12.01.2014 08:40 -0,2 C -2,2 C 96 % 1024,6 hPa 0,0 l/m 0 min 0 min 0,0 UV-I 7 W/m 0,0 km/h (0 Bft)
12.01.2014 08:42 -0,2 C -2,2 C 96 % 1024,7 hPa 0,0 l/m 0 min 0 min 0,0 UV-I 7 W/m 0,0 km/h (0 Bft)
12.01.2014 08:44 -0,2 C -2,2 C 96 % 1024,7 hPa 0,0 l/m 0 min 0 min 0,0 UV-I 9 W/m 0,0 km/h (0 Bft)
12.01.2014 08:46 -0,2 C -2,2 C 96 % 1024,7 hPa 0,0 l/m 0 min 0 min 0,0 UV-I 9 W/m 0,0 km/h (0 Bft)
12.01.2014 08:48 -0,3 C -2,8 C 96 % 1024,7 hPa 0,0 l/m 0 min 0 min 0,0 UV-I 11 W/m 0,0 km/h (0 Bft)
12.01.2014 08:50 -0,3 C -2,8 C 96 % 1024,7 hPa 0,0 l/m 0 min 0 min 0,0 UV-I 11 W/m 0,0 km/h (0 Bft)
12.01.2014 08:52 -0,3 C -2,8 C 96 % 1024,7 hPa 0,0 l/m 0 min 0 min 0,0 UV-I 12 W/m 0,0 km/h (0 Bft)
12.01.2014 08:54 -0,3 C -1,7 C 96 % 1024,7 hPa 0,0 l/m 0 min 0 min 0,0 UV-I 14 W/m 0,0 km/h (0 Bft)
12.01.2014 08:56 -0,3 C -1,7 C 96 % 1024,8 hPa 0,0 l/m 0 min 0 min 0,0 UV-I 14 W/m 0,0 km/h (0 Bft)
12.01.2014 08:58 -0,3 C -2,2 C 96 % 1024,9 hPa 0,0 l/m 0 min 0 min 0,0 UV-I 16 W/m 0,0 km/h (0 Bft)
12.01.2014 09:00 -0,4 C -2,2 C 96 % 1024,8 hPa 0,0 l/m 0 min 0 min 0,0 UV-I 18 W/m 0,0 km/h (0 Bft)
12.01.2014 09:02 -0,4 C -2,2 C 96 % 1024,9 hPa 0,0 l/m 0 min 0 min 0,0 UV-I 19 W/m 0,0 km/h (0 Bft)
12.01.2014 09:04 -0,4 C -2,2 C 96 % 1024,8 hPa 0,0 l/m 0 min 0 min 0,0 UV-I 19 W/m 0,0 km/h (0 Bft)
12.01.2014 09:06 -0,4 C -2,2 C 96 % 1024,9 hPa 0,0 l/m 0 min 0 min 0,0 UV-I 23 W/m 0,0 km/h (0 Bft)
12.01.2014 09:08 -0,5 C -2,2 C 96 % 1024,9 hPa 0,0 l/m 0 min 0 min 0,0 UV-I 23 W/m 0,0 km/h (0 Bft)
12.01.2014 09:10 -0,6 C -2,2 C 96 % 1024,9 hPa 0,0 l/m 0 min 0 min 0,0 UV-I 25 W/m 0,0 km/h (0 Bft)
12.01.2014 09:12 -0,6 C -2,2 C 96 % 1024,9 hPa 0,0 l/m 0 min 0 min 0,0 UV-I 26 W/m 0,0 km/h (0 Bft)
12.01.2014 09:14 -0,6 C -2,2 C 96 % 1024,9 hPa 0,0 l/m 0 min 0 min 0,0 UV-I 28 W/m 0,0 km/h (0 Bft)
12.01.2014 09:16 -0,6 C -2,2 C 96 % 1024,8 hPa 0,0 l/m 0 min 0 min 0,0 UV-I 30 W/m 0,0 km/h (0 Bft)
12.01.2014 09:18 -0,6 C -2,2 C 96 % 1024,8 hPa 0,0 l/m 0 min 0 min 0,0 UV-I 30 W/m 0,0 km/h (0 Bft)
12.01.2014 09:20 -0,7 C -2,2 C 96 % 1024,7 hPa 0,0 l/m 0 min 0 min 0,0 UV-I 32 W/m 0,0 km/h (0 Bft)
12.01.2014 09:22 -0,7 C -2,2 C 96 % 1024,8 hPa 0,0 l/m 0 min 0 min 0,0 UV-I 32 W/m 0,0 km/h (0 Bft)
12.01.2014 09:24 -0,7 C -2,2 C 96 % 1024,8 hPa 0,0 l/m 0 min 0 min 0,0 UV-I 32 W/m 0,0 km/h (0 Bft)
12.01.2014 09:26 -0,7 C -2,2 C 96 % 1024,8 hPa 0,0 l/m 0 min 0 min 0,0 UV-I 35 W/m 0,0 km/h (0 Bft)
12.01.2014 09:28 -0,7 C -2,2 C 96 % 1024,8 hPa 0,0 l/m 0 min 0 min 0,0 UV-I 33 W/m 0,0 km/h (0 Bft)
12.01.2014 09:30 -0,8 C -2,2 C 96 % 1024,8 hPa 0,0 l/m 0 min 0 min 0,0 UV-I 33 W/m 0,0 km/h (0 Bft)
12.01.2014 09:32 -0,8 C -2,2 C 96 % 1024,8 hPa 0,0 l/m 0 min 0 min 0,0 UV-I 32 W/m 0,0 km/h (0 Bft)
12.01.2014 09:34 -0,8 C -2,2 C 96 % 1024,8 hPa 0,0 l/m 0 min 0 min 0,0 UV-I 32 W/m 0,0 km/h (0 Bft)
12.01.2014 09:36 -0,8 C -2,2 C 96 % 1024,7 hPa 0,0 l/m 0 min 0 min 0,0 UV-I 30 W/m 0,0 km/h (0 Bft)
12.01.2014 09:38 -0,8 C -2,2 C 96 % 1024,7 hPa 0,0 l/m 0 min 0 min 0,0 UV-I 32 W/m 0,0 km/h (0 Bft)
12.01.2014 09:40 -0,8 C -2,2 C 96 % 1024,7 hPa 0,0 l/m 0 min 0 min 0,0 UV-I 37 W/m 0,0 km/h (0 Bft)
12.01.2014 09:42 -0,8 C -2,2 C 96 % 1024,8 hPa 0,0 l/m 0 min 0 min 0,0 UV-I 47 W/m 0,0 km/h (0 Bft)
12.01.2014 09:44 -0,8 C -1,7 C 96 % 1024,7 hPa 0,0 l/m 0 min 0 min 0,0 UV-I 49 W/m 0,0 km/h (0 Bft)
12.01.2014 09:46 -0,8 C -1,7 C 96 % 1024,7 hPa 0,0 l/m 0 min 0 min 0,0 UV-I 44 W/m 0,0 km/h (0 Bft)
12.01.2014 09:48 -0,8 C -1,7 C 96 % 1024,8 hPa 0,0 l/m 0 min 0 min 0,0 UV-I 44 W/m 0,0 km/h (0 Bft)
12.01.2014 09:50 -0,7 C -1,7 C 96 % 1024,8 hPa 0,0 l/m 0 min 0 min 0,0 UV-I 46 W/m 0,0 km/h (0 Bft)
12.01.2014 09:52 -0,7 C -1,7 C 96 % 1024,8 hPa 0,0 l/m 0 min 0 min 0,0 UV-I 54 W/m 0,0 km/h (0 Bft)
12.01.2014 09:54 -0,7 C -1,7 C 96 % 1024,8 hPa 0,0 l/m 0 min 0 min 0,0 UV-I 63 W/m 0,0 km/h (0 Bft)
12.01.2014 09:56 -0,6 C -1,7 C 96 % 1024,9 hPa 0,0 l/m 0 min 0 min 0,0 UV-I 77 W/m 0,0 km/h (0 Bft)
12.01.2014 09:58 -0,6 C -1,7 C 96 % 1024,9 hPa 0,0 l/m 2 min 0 min 0,0 UV-I 120 W/m 0,0 km/h (0 Bft)
12.01.2014 10:00 -0,6 C -1,1 C 96 % 1024,9 hPa 0,0 l/m 2 min 0 min 0,0 UV-I 107 W/m 0,0 km/h (0 Bft)
12.01.2014 10:02 -0,5 C -1,1 C 96 % 1024,9 hPa 0,0 l/m 2 min 0 min 0,0 UV-I 127 W/m 0,0 km/h (0 Bft)
12.01.2014 10:04 -0,1 C -1,1 C 96 % 1025,0 hPa 0,0 l/m 2 min 0 min 0,0 UV-I 125 W/m 0,0 km/h (0 Bft)
12.01.2014 10:06 0,2 C -1,1 C 97 % 1025,0 hPa 0,0 l/m 2 min 0 min 0,0 UV-I 98 W/m 5,1 km/h (1 Bft)
12.01.2014 10:08 0,5 C -1,1 C 97 % 1025,0 hPa 0,0 l/m 2 min 0 min 0,0 UV-I 95 W/m 0,0 km/h (0 Bft)
12.01.2014 10:10 0,7 C -1,1 C 97 % 1024,9 hPa 0,0 l/m 2 min 0 min 0,0 UV-I 102 W/m 0,0 km/h (0 Bft)
12.01.2014 10:12 0,9 C -1,1 C 97 % 1024,9 hPa 0,0 l/m 2 min 0 min 0,0 UV-I 100 W/m 0,0 km/h (0 Bft)
12.01.2014 10:14 0,9 C -0,6 C 97 % 1024,9 hPa 0,0 l/m 2 min 0 min 0,0 UV-I 107 W/m 0,0 km/h (0 Bft)
12.01.2014 10:16 1,0 C -0,6 C 97 % 1024,9 hPa 0,0 l/m 2 min 0 min 0,0 UV-I 102 W/m 0,0 km/h (0 Bft)
12.01.2014 10:18 1,1 C -0,6 C 97 % 1025,0 hPa 0,0 l/m 0 min 0 min 0,0 UV-I 98 W/m 5,1 km/h (1 Bft)
12.01.2014 10:20 1,2 C -0,6 C 97 % 1025,0 hPa 0,0 l/m 0 min 0 min 0,0 UV-I 100 W/m 0,0 km/h (0 Bft)
12.01.2014 10:22 1,2 C -0,6 C 97 % 1025,0 hPa 0,0 l/m 0 min 0 min 0,0 UV-I 97 W/m 0,0 km/h (0 Bft)
12.01.2014 10:24 1,3 C -0,6 C 97 % 1025,0 hPa 0,0 l/m 0 min 0 min 0,0 UV-I 84 W/m 2,6 km/h (1 Bft)
12.01.2014 10:26 1,3 C -0,6 C 97 % 1024,9 hPa 0,0 l/m 0 min 0 min 0,0 UV-I 84 W/m 0,0 km/h (0 Bft)
12.01.2014 10:28 1,3 C -0,6 C 97 % 1025,0 hPa 0,0 l/m 0 min 0 min 0,0 UV-I 83 W/m 5,1 km/h (1 Bft)
12.01.2014 10:30 1,3 C -0,6 C 97 % 1025,0 hPa 0,0 l/m 0 min 0 min 0,0 UV-I 84 W/m 2,6 km/h (1 Bft)
12.01.2014 10:32 1,3 C -0,6 C 97 % 1025,0 hPa 0,0 l/m 0 min 0 min 0,0 UV-I 90 W/m 7,7 km/h (2 Bft)
12.01.2014 10:34 1,3 C -0,6 C 97 % 1025,0 hPa 0,0 l/m 0 min 0 min 0,0 UV-I 98 W/m 2,6 km/h (1 Bft)
12.01.2014 10:36 1,4 C -0,6 C 97 % 1025,0 hPa 0,0 l/m 0 min 0 min 0,0 UV-I 104 W/m 2,6 km/h (1 Bft)
12.01.2014 10:38 1,4 C -0,6 C 97 % 1025,0 hPa 0,0 l/m 0 min 0 min 0,0 UV-I 116 W/m 0,0 km/h (0 Bft)
12.01.2014 10:40 1,4 C 0,0 C 97 % 1025,0 hPa 0,0 l/m 2 min 0 min 0,0 UV-I 146 W/m 2,6 km/h (1 Bft)
12.01.2014 10:42 1,5 C 0,0 C 97 % 1024,9 hPa 0,0 l/m 2 min 0 min 0,0 UV-I 146 W/m 0,0 km/h (0 Bft)
12.01.2014 10:44 1,6 C 0,0 C 97 % 1024,9 hPa 0,0 l/m 2 min 0 min 0,0 UV-I 148 W/m 2,6 km/h (1 Bft)
12.01.2014 10:46 1,7 C 0,0 C 97 % 1025,0 hPa 0,0 l/m 2 min 0 min 0,0 UV-I 160 W/m 5,1 km/h (1 Bft)
12.01.2014 10:48 1,7 C 0,0 C 97 % 1024,9 hPa 0,0 l/m 2 min 0 min 0,0 UV-I 155 W/m 5,1 km/h (1 Bft)
12.01.2014 10:50 1,8 C 0,0 C 97 % 1024,9 hPa 0,0 l/m 2 min 0 min 0,0 UV-I 171 W/m 0,0 km/h (0 Bft)
12.01.2014 10:52 1,9 C 0,0 C 97 % 1024,9 hPa 0,0 l/m 2 min 0 min 0,0 UV-I 171 W/m 0,0 km/h (0 Bft)
12.01.2014 10:54 2,0 C 0,6 C 97 % 1024,9 hPa 0,0 l/m 2 min 0 min 0,0 UV-I 176 W/m 2,6 km/h (1 Bft)
12.01.2014 10:56 2,1 C 0,6 C 97 % 1024,9 hPa 0,0 l/m 2 min 0 min 0,0 UV-I 181 W/m 0,0 km/h (0 Bft)
12.01.2014 10:58 2,2 C 0,6 C 97 % 1024,9 hPa 0,0 l/m 2 min 0 min 0,0 UV-I 190 W/m 0,0 km/h (0 Bft)
12.01.2014 11:00 2,2 C 0,6 C 97 % 1024,8 hPa 0,0 l/m 2 min 0 min 0,0 UV-I 192 W/m 7,7 km/h (2 Bft)
12.01.2014 11:02 2,3 C 0,6 C 97 % 1024,7 hPa 0,0 l/m 2 min 0 min 0,0 UV-I 195 W/m 5,1 km/h (1 Bft)
12.01.2014 11:04 2,5 C 0,6 C 97 % 1024,7 hPa 0,0 l/m 2 min 0 min 0,0 UV-I 190 W/m 5,1 km/h (1 Bft)
12.01.2014 11:06 2,6 C 0,6 C 97 % 1024,7 hPa 0,0 l/m 2 min 0 min 0,0 UV-I 202 W/m 5,1 km/h (1 Bft)
12.01.2014 11:08 2,7 C 0,6 C 97 % 1024,6 hPa 0,0 l/m 2 min 0 min 0,0 UV-I 207 W/m 0,0 km/h (0 Bft)
12.01.2014 11:10 2,8 C 0,6 C 97 % 1024,7 hPa 0,0 l/m 2 min 0 min 0,0 UV-I 214 W/m 7,7 km/h (2 Bft)
12.01.2014 11:12 2,9 C 1,1 C 97 % 1024,6 hPa 0,0 l/m 2 min 0 min 0,0 UV-I 220 W/m 2,6 km/h (1 Bft)
12.01.2014 11:14 3,0 C 1,1 C 97 % 1024,7 hPa 0,0 l/m 2 min 0 min 0,0 UV-I 230 W/m 5,1 km/h (1 Bft)
12.01.2014 11:16 3,2 C 1,1 C 97 % 1024,6 hPa 0,0 l/m 2 min 0 min 0,0 UV-I 241 W/m 2,6 km/h (1 Bft)
12.01.2014 11:18 3,3 C 1,7 C 97 % 1024,6 hPa 0,0 l/m 2 min 0 min 0,0 UV-I 248 W/m 7,7 km/h (2 Bft)
12.01.2014 11:20 3,4 C 1,7 C 97 % 1024,6 hPa 0,0 l/m 2 min 0 min 0,0 UV-I 251 W/m 7,7 km/h (2 Bft)
12.01.2014 11:22 3,6 C 1,7 C 97 % 1024,6 hPa 0,0 l/m 2 min 0 min 0,0 UV-I 251 W/m 10,3 km/h (2 Bft)
12.01.2014 11:24 3,7 C 1,7 C 97 % 1024,5 hPa 0,0 l/m 2 min 0 min 0,0 UV-I 248 W/m 0,0 km/h (0 Bft)
12.01.2014 11:26 3,8 C 1,7 C 97 % 1024,5 hPa 0,0 l/m 2 min 0 min 0,0 UV-I 248 W/m 5,1 km/h (1 Bft)
12.01.2014 11:28 3,9 C 1,7 C 97 % 1024,5 hPa 0,0 l/m 2 min 0 min 0,0 UV-I 248 W/m 10,3 km/h (2 Bft)
12.01.2014 11:30 4,1 C 1,7 C 97 % 1024,4 hPa 0,0 l/m 2 min 0 min 0,0 UV-I 251 W/m 5,1 km/h (1 Bft)
12.01.2014 11:32 4,2 C 2,2 C 97 % 1024,4 hPa 0,0 l/m 2 min 0 min 0,0 UV-I 253 W/m 7,7 km/h (2 Bft)
12.01.2014 11:34 4,4 C 2,2 C 96 % 1024,3 hPa 0,0 l/m 2 min 0 min 0,0 UV-I 255 W/m 7,7 km/h (2 Bft)
12.01.2014 11:36 4,4 C 2,2 C 96 % 1024,2 hPa 0,0 l/m 2 min 0 min 0,0 UV-I 258 W/m 7,7 km/h (2 Bft)
12.01.2014 11:38 4,5 C 2,2 C 96 % 1024,2 hPa 0,0 l/m 2 min 0 min 0,0 UV-I 257 W/m 10,3 km/h (2 Bft)
12.01.2014 11:40 4,6 C 2,2 C 95 % 1024,1 hPa 0,0 l/m 2 min 0 min 0,0 UV-I 262 W/m 7,7 km/h (2 Bft)
12.01.2014 11:42 4,7 C 2,2 C 94 % 1024,1 hPa 0,0 l/m 2 min 0 min 0,0 UV-I 265 W/m 0,0 km/h (0 Bft)
12.01.2014 11:44 4,8 C 2,2 C 94 % 1024,1 hPa 0,0 l/m 2 min 0 min 0,0 UV-I 265 W/m 0,0 km/h (0 Bft)
12.01.2014 11:46 4,9 C 2,2 C 93 % 1024,0 hPa 0,0 l/m 2 min 0 min 0,0 UV-I 269 W/m 0,0 km/h (0 Bft)
12.01.2014 11:48 4,9 C 2,8 C 93 % 1024,0 hPa 0,0 l/m 2 min 0 min 0,0 UV-I 288 W/m 12,9 km/h (3 Bft)
12.01.2014 11:50 5,2 C 2,8 C 92 % 1024,1 hPa 0,0 l/m 2 min 0 min 0,0 UV-I 315 W/m 7,7 km/h (2 Bft)
12.01.2014 11:52 5,2 C 3,3 C 92 % 1024,0 hPa 0,0 l/m 2 min 0 min 0,0 UV-I 327 W/m 7,7 km/h (2 Bft)
12.01.2014 11:54 5,3 C 3,3 C 91 % 1024,0 hPa 0,0 l/m 2 min 0 min 0,0 UV-I 330 W/m 7,7 km/h (2 Bft)
12.01.2014 11:56 5,4 C 3,3 C 91 % 1024,0 hPa 0,0 l/m 2 min 0 min 0,0 UV-I 330 W/m 10,3 km/h (2 Bft)
12.01.2014 11:58 5,4 C 3,3 C 91 % 1024,0 hPa 0,0 l/m 2 min 0 min 0,0 UV-I 260 W/m 10,3 km/h (2 Bft)
12.01.2014 12:00 5,4 C 3,3 C 90 % 1023,9 hPa 0,0 l/m 0 min 2 min 0,0 UV-I 160 W/m 7,7 km/h (2 Bft)
12.01.2014 12:02 5,5 C 3,9 C 90 % 1023,9 hPa 0,0 l/m 2 min 0 min 0,0 UV-I 323 W/m 5,1 km/h (1 Bft)
12.01.2014 12:04 5,6 C 3,9 C 90 % 1023,9 hPa 0,0 l/m 2 min 0 min 0,0 UV-I 322 W/m 10,3 km/h (2 Bft)
12.01.2014 12:06 5,7 C 3,9 C 89 % 1023,8 hPa 0,0 l/m 2 min 0 min 0,0 UV-I 323 W/m 12,9 km/h (3 Bft)
12.01.2014 12:08 5,8 C 3,9 C 89 % 1023,8 hPa 0,0 l/m 2 min 0 min 0,0 UV-I 313 W/m 10,3 km/h (2 Bft)
12.01.2014 12:10 5,9 C 3,9 C 88 % 1023,8 hPa 0,0 l/m 2 min 0 min 0,0 UV-I 287 W/m 5,1 km/h (1 Bft)
12.01.2014 12:12 5,9 C 3,9 C 88 % 1023,7 hPa 0,0 l/m 2 min 0 min 0,0 UV-I 301 W/m 7,7 km/h (2 Bft)
12.01.2014 12:14 5,9 C 3,9 C 88 % 1023,7 hPa 0,0 l/m 2 min 0 min 0,0 UV-I 297 W/m 5,1 km/h (1 Bft)
12.01.2014 12:16 5,9 C 3,9 C 87 % 1023,7 hPa 0,0 l/m 2 min 0 min 0,0 UV-I 288 W/m 7,7 km/h (2 Bft)
12.01.2014 12:18 6,1 C 3,9 C 87 % 1023,7 hPa 0,0 l/m 2 min 0 min 0,0 UV-I 292 W/m 12,9 km/h (3 Bft)
12.01.2014 12:20 6,1 C 3,9 C 87 % 1023,7 hPa 0,0 l/m 2 min 0 min 0,0 UV-I 290 W/m 15,4 km/h (3 Bft)
12.01.2014 12:22 6,2 C 3,9 C 87 % 1023,6 hPa 0,0 l/m 2 min 0 min 0,0 UV-I 287 W/m 10,3 km/h (2 Bft)
12.01.2014 12:24 6,2 C 3,9 C 86 % 1023,6 hPa 0,0 l/m 2 min 0 min 0,0 UV-I 287 W/m 10,3 km/h (2 Bft)
12.01.2014 12:26 6,4 C 3,9 C 86 % 1023,6 hPa 0,0 l/m 2 min 0 min 0,0 UV-I 279 W/m 12,9 km/h (3 Bft)
12.01.2014 12:28 6,4 C 4,4 C 85 % 1023,6 hPa 0,0 l/m 2 min 0 min 0,0 UV-I 285 W/m 12,9 km/h (3 Bft)
12.01.2014 12:30 6,5 C 4,4 C 85 % 1023,5 hPa 0,0 l/m 2 min 0 min 0,0 UV-I 276 W/m 10,3 km/h (2 Bft)
12.01.2014 12:32 6,5 C 3,9 C 85 % 1023,5 hPa 0,0 l/m 2 min 0 min 0,0 UV-I 271 W/m 12,9 km/h (3 Bft)
12.01.2014 12:34 6,4 C 3,9 C 84 % 1023,5 hPa 0,0 l/m 2 min 0 min 0,0 UV-I 260 W/m 10,3 km/h (2 Bft)
12.01.2014 12:36 6,4 C 3,9 C 84 % 1023,4 hPa 0,0 l/m 2 min 0 min 0,0 UV-I 253 W/m 7,7 km/h (2 Bft)
12.01.2014 12:38 6,4 C 3,9 C 84 % 1023,4 hPa 0,0 l/m 2 min 0 min 0,0 UV-I 257 W/m 5,1 km/h (1 Bft)
12.01.2014 12:40 6,4 C 3,9 C 84 % 1023,3 hPa 0,0 l/m 2 min 0 min 0,0 UV-I 264 W/m 12,9 km/h (3 Bft)
12.01.2014 12:42 6,4 C 3,9 C 84 % 1023,3 hPa 0,0 l/m 2 min 0 min 0,0 UV-I 269 W/m 15,4 km/h (3 Bft)
12.01.2014 12:44 6,5 C 3,9 C 84 % 1023,2 hPa 0,0 l/m 2 min 0 min 0,0 UV-I 272 W/m 7,7 km/h (2 Bft)
12.01.2014 12:46 6,6 C 4,4 C 84 % 1023,2 hPa 0,0 l/m 2 min 0 min 0,0 UV-I 272 W/m 5,1 km/h (1 Bft)
12.01.2014 12:48 6,6 C 4,4 C 84 % 1023,2 hPa 0,0 l/m 2 min 0 min 0,0 UV-I 281 W/m 15,4 km/h (3 Bft)
12.01.2014 12:50 6,6 C 4,4 C 83 % 1023,1 hPa 0,0 l/m 2 min 0 min 0,0 UV-I 267 W/m 10,3 km/h (2 Bft)
12.01.2014 12:52 6,6 C 4,4 C 83 % 1023,1 hPa 0,0 l/m 2 min 0 min 0,0 UV-I 258 W/m 7,7 km/h (2 Bft)
12.01.2014 12:54 6,7 C 4,4 C 83 % 1023,1 hPa 0,0 l/m 2 min 0 min 0,0 UV-I 260 W/m 7,7 km/h (2 Bft)
12.01.2014 12:56 6,7 C 4,4 C 83 % 1023,0 hPa 0,0 l/m 2 min 0 min 0,0 UV-I 251 W/m 7,7 km/h (2 Bft)
12.01.2014 12:58 6,8 C 4,4 C 83 % 1023,0 hPa 0,0 l/m 2 min 0 min 0,0 UV-I 251 W/m 7,7 km/h (2 Bft)
12.01.2014 13:00 6,7 C 4,4 C 83 % 1023,0 hPa 0,0 l/m 2 min 0 min 0,0 UV-I 250 W/m 0,0 km/h (0 Bft)
12.01.2014 13:02 6,7 C 4,4 C 83 % 1023,0 hPa 0,0 l/m 2 min 0 min 0,0 UV-I 251 W/m 0,0 km/h (0 Bft)
12.01.2014 13:04 6,7 C 4,4 C 83 % 1022,9 hPa 0,0 l/m 2 min 0 min 0,0 UV-I 248 W/m 7,7 km/h (2 Bft)
12.01.2014 13:06 6,6 C 4,4 C 83 % 1022,9 hPa 0,0 l/m 2 min 0 min 0,0 UV-I 237 W/m 15,4 km/h (3 Bft)
12.01.2014 13:08 6,6 C 4,4 C 83 % 1022,9 hPa 0,0 l/m 2 min 0 min 0,0 UV-I 241 W/m 7,7 km/h (2 Bft)
12.01.2014 13:10 6,7 C 4,4 C 83 % 1022,8 hPa 0,0 l/m 2 min 0 min 0,0 UV-I 251 W/m 10,3 km/h (2 Bft)
12.01.2014 13:12 6,6 C 4,4 C 83 % 1022,7 hPa 0,0 l/m 2 min 0 min 0,0 UV-I 243 W/m 10,3 km/h (2 Bft)
12.01.2014 13:14 6,6 C 4,4 C 83 % 1022,7 hPa 0,0 l/m 2 min 0 min 0,0 UV-I 237 W/m 12,9 km/h (3 Bft)
12.01.2014 13:16 6,6 C 4,4 C 83 % 1022,8 hPa 0,0 l/m 2 min 0 min 0,0 UV-I 230 W/m 5,1 km/h (1 Bft)
12.01.2014 13:18 6,5 C 4,4 C 83 % 1022,8 hPa 0,0 l/m 2 min 0 min 0,0 UV-I 230 W/m 10,3 km/h (2 Bft)
12.01.2014 13:20 6,5 C 4,4 C 83 % 1022,7 hPa 0,0 l/m 2 min 0 min 0,0 UV-I 237 W/m 10,3 km/h (2 Bft)
12.01.2014 13:22 6,6 C 4,4 C 83 % 1022,7 hPa 0,0 l/m 2 min 0 min 0,0 UV-I 248 W/m 12,9 km/h (3 Bft)
12.01.2014 13:24 6,5 C 4,4 C 83 % 1022,6 hPa 0,0 l/m 2 min 0 min 0,0 UV-I 248 W/m 10,3 km/h (2 Bft)
12.01.2014 13:26 6,5 C 4,4 C 83 % 1022,6 hPa 0,0 l/m 2 min 0 min 0,0 UV-I 244 W/m 12,9 km/h (3 Bft)
12.01.2014 13:28 6,5 C 4,4 C 83 % 1022,5 hPa 0,0 l/m 2 min 0 min 0,0 UV-I 246 W/m 7,7 km/h (2 Bft)
12.01.2014 13:30 6,5 C 4,4 C 83 % 1022,6 hPa 0,0 l/m 2 min 0 min 0,0 UV-I 243 W/m 15,4 km/h (3 Bft)
12.01.2014 13:32 6,5 C 5,0 C 83 % 1022,5 hPa 0,0 l/m 2 min 0 min 0,0 UV-I 232 W/m 2,6 km/h (1 Bft)
12.01.2014 13:34 6,6 C 5,0 C 83 % 1022,5 hPa 0,0 l/m 2 min 0 min 0,0 UV-I 236 W/m 12,9 km/h (3 Bft)
12.01.2014 13:36 6,6 C 5,0 C 83 % 1022,5 hPa 0,0 l/m 2 min 0 min 0,0 UV-I 241 W/m 15,4 km/h (3 Bft)
12.01.2014 13:38 6,7 C 5,0 C 83 % 1022,5 hPa 0,0 l/m 2 min 0 min 0,0 UV-I 239 W/m 15,4 km/h (3 Bft)
12.01.2014 13:40 6,7 C 5,0 C 83 % 1022,5 hPa 0,0 l/m 2 min 0 min 0,0 UV-I 243 W/m 7,7 km/h (2 Bft)
12.01.2014 13:42 6,7 C 5,0 C 82 % 1022,5 hPa 0,0 l/m 2 min 0 min 0,0 UV-I 246 W/m 18,0 km/h (3 Bft)
12.01.2014 13:44 6,7 C 5,0 C 82 % 1022,4 hPa 0,0 l/m 2 min 0 min 0,0 UV-I 244 W/m 12,9 km/h (3 Bft)
12.01.2014 13:46 6,7 C 5,0 C 82 % 1022,4 hPa 0,0 l/m 2 min 0 min 0,0 UV-I 230 W/m 12,9 km/h (3 Bft)
12.01.2014 13:48 6,7 C 5,0 C 83 % 1022,4 hPa 0,0 l/m 2 min 0 min 0,0 UV-I 239 W/m 15,4 km/h (3 Bft)
12.01.2014 13:50 6,7 C 5,0 C 83 % 1022,2 hPa 0,0 l/m 2 min 0 min 0,0 UV-I 265 W/m 10,3 km/h (2 Bft)
12.01.2014 13:52 6,7 C 5,0 C 83 % 1022,2 hPa 0,0 l/m 2 min 0 min 0,0 UV-I 274 W/m 10,3 km/h (2 Bft)
12.01.2014 13:54 6,7 C 5,6 C 83 % 1022,1 hPa 0,0 l/m 2 min 0 min 0,0 UV-I 276 W/m 5,1 km/h (1 Bft)
12.01.2014 13:56 6,7 C 5,6 C 83 % 1022,1 hPa 0,0 l/m 2 min 0 min 0,0 UV-I 269 W/m 15,4 km/h (3 Bft)
12.01.2014 13:58 6,7 C 5,6 C 83 % 1022,1 hPa 0,0 l/m 2 min 0 min 0,0 UV-I 258 W/m 15,4 km/h (3 Bft)
12.01.2014 14:00 6,8 C 5,6 C 83 % 1022,1 hPa 0,0 l/m 2 min 0 min 0,0 UV-I 257 W/m 15,4 km/h (3 Bft)
12.01.2014 14:02 6,7 C 5,6 C 83 % 1022,1 hPa 0,0 l/m 2 min 0 min 0,0 UV-I 190 W/m 12,9 km/h (3 Bft)
12.01.2014 14:04 6,7 C 5,0 C 83 % 1022,1 hPa 0,0 l/m 2 min 0 min 0,0 UV-I 156 W/m 7,7 km/h (2 Bft)
12.01.2014 14:06 6,6 C 5,0 C 82 % 1021,9 hPa 0,0 l/m 2 min 0 min 0,0 UV-I 220 W/m 0,0 km/h (0 Bft)
12.01.2014 14:08 6,6 C 5,0 C 83 % 1021,9 hPa 0,0 l/m 2 min 0 min 0,0 UV-I 209 W/m 10,3 km/h (2 Bft)
12.01.2014 14:10 6,5 C 5,0 C 83 % 1022,0 hPa 0,0 l/m 2 min 0 min 0,0 UV-I 178 W/m 10,3 km/h (2 Bft)
12.01.2014 14:12 6,4 C 5,0 C 83 % 1021,9 hPa 0,0 l/m 2 min 0 min 0,0 UV-I 218 W/m 10,3 km/h (2 Bft)
12.01.2014 14:14 6,4 C 5,0 C 83 % 1021,9 hPa 0,0 l/m 2 min 0 min 0,0 UV-I 223 W/m 10,3 km/h (2 Bft)
12.01.2014 14:16 6,4 C 5,0 C 83 % 1021,9 hPa 0,0 l/m 2 min 0 min 0,0 UV-I 216 W/m 12,9 km/h (3 Bft)
12.01.2014 14:18 6,4 C 5,0 C 83 % 1021,9 hPa 0,0 l/m 2 min 0 min 0,0 UV-I 214 W/m 12,9 km/h (3 Bft)
12.01.2014 14:20 6,4 C 5,0 C 83 % 1021,9 hPa 0,0 l/m 2 min 0 min 0,0 UV-I 213 W/m 10,3 km/h (2 Bft)
12.01.2014 14:22 6,5 C 5,0 C 83 % 1021,9 hPa 0,0 l/m 2 min 0 min 0,0 UV-I 204 W/m 7,7 km/h (2 Bft)
12.01.2014 14:24 6,6 C 5,0 C 83 % 1021,9 hPa 0,0 l/m 2 min 0 min 0,0 UV-I 200 W/m 2,6 km/h (1 Bft)
12.01.2014 14:26 6,5 C 5,0 C 83 % 1021,9 hPa 0,0 l/m 2 min 0 min 0,0 UV-I 199 W/m 12,9 km/h (3 Bft)
12.01.2014 14:28 6,5 C 5,0 C 83 % 1021,9 hPa 0,0 l/m 2 min 0 min 0,0 UV-I 193 W/m 15,4 km/h (3 Bft)
12.01.2014 14:30 6,4 C 5,0 C 82 % 1021,9 hPa 0,0 l/m 2 min 0 min 0,0 UV-I 188 W/m 12,9 km/h (3 Bft)
12.01.2014 14:32 6,4 C 4,4 C 82 % 1021,8 hPa 0,0 l/m 2 min 0 min 0,0 UV-I 185 W/m 7,7 km/h (2 Bft)
12.01.2014 14:34 6,4 C 4,4 C 82 % 1021,8 hPa 0,0 l/m 2 min 0 min 0,0 UV-I 185 W/m 0,0 km/h (0 Bft)
12.01.2014 14:36 6,4 C 4,4 C 82 % 1021,8 hPa 0,0 l/m 2 min 0 min 0,0 UV-I 181 W/m 7,7 km/h (2 Bft)
12.01.2014 14:38 6,4 C 4,4 C 82 % 1021,8 hPa 0,0 l/m 2 min 0 min 0,0 UV-I 183 W/m 7,7 km/h (2 Bft)
12.01.2014 14:40 6,4 C 4,4 C 83 % 1021,7 hPa 0,0 l/m 2 min 0 min 0,0 UV-I 174 W/m 0,0 km/h (0 Bft)
12.01.2014 14:42 6,4 C 4,4 C 83 % 1021,7 hPa 0,0 l/m 2 min 0 min 0,0 UV-I 171 W/m 10,3 km/h (2 Bft)
12.01.2014 14:44 6,4 C 4,4 C 82 % 1021,6 hPa 0,0 l/m 2 min 0 min 0,0 UV-I 172 W/m 12,9 km/h (3 Bft)
12.01.2014 14:46 6,3 C 4,4 C 82 % 1021,6 hPa 0,0 l/m 2 min 0 min 0,0 UV-I 171 W/m 10,3 km/h (2 Bft)
12.01.2014 14:48 6,3 C 4,4 C 82 % 1021,5 hPa 0,0 l/m 2 min 0 min 0,0 UV-I 167 W/m 5,1 km/h (1 Bft)
12.01.2014 14:50 6,3 C 4,4 C 82 % 1021,4 hPa 0,0 l/m 2 min 0 min 0,0 UV-I 160 W/m 2,6 km/h (1 Bft)
12.01.2014 14:52 6,2 C 4,4 C 82 % 1021,4 hPa 0,0 l/m 2 min 0 min 0,0 UV-I 153 W/m 12,9 km/h (3 Bft)
12.01.2014 14:54 6,2 C 4,4 C 82 % 1021,4 hPa 0,0 l/m 2 min 0 min 0,0 UV-I 148 W/m 15,4 km/h (3 Bft)
12.01.2014 14:56 6,2 C 4,4 C 82 % 1021,4 hPa 0,0 l/m 2 min 0 min 0,0 UV-I 148 W/m 18,0 km/h (3 Bft)
12.01.2014 14:58 6,2 C 4,4 C 82 % 1021,3 hPa 0,0 l/m 2 min 0 min 0,0 UV-I 142 W/m 15,4 km/h (3 Bft)
12.01.2014 15:00 6,2 C 4,4 C 81 % 1021,2 hPa 0,0 l/m 2 min 0 min 0,0 UV-I 142 W/m 12,9 km/h (3 Bft)
12.01.2014 15:02 6,2 C 4,4 C 81 % 1021,2 hPa 0,0 l/m 2 min 0 min 0,0 UV-I 141 W/m 10,3 km/h (2 Bft)
12.01.2014 15:04 6,2 C 4,4 C 81 % 1021,2 hPa 0,0 l/m 2 min 0 min 0,0 UV-I 137 W/m 12,9 km/h (3 Bft)
12.01.2014 15:06 6,1 C 4,4 C 81 % 1021,1 hPa 0,0 l/m 2 min 0 min 0,0 UV-I 130 W/m 10,3 km/h (2 Bft)
12.01.2014 15:08 6,1 C 4,4 C 81 % 1021,1 hPa 0,0 l/m 2 min 0 min 0,0 UV-I 123 W/m 10,3 km/h (2 Bft)
12.01.2014 15:10 6,1 C 4,4 C 81 % 1021,1 hPa 0,0 l/m 2 min 0 min 0,0 UV-I 118 W/m 12,9 km/h (3 Bft)
12.01.2014 15:12 6,1 C 4,4 C 81 % 1021,0 hPa 0,0 l/m 2 min 0 min 0,0 UV-I 116 W/m 12,9 km/h (3 Bft)
12.01.2014 15:14 6,1 C 4,4 C 81 % 1021,0 hPa 0,0 l/m 2 min 0 min 0,0 UV-I 116 W/m 12,9 km/h (3 Bft)
12.01.2014 15:16 6,1 C 4,4 C 81 % 1021,1 hPa 0,0 l/m 2 min 0 min 0,0 UV-I 98 W/m 7,7 km/h (2 Bft)
12.01.2014 15:18 6,1 C 3,9 C 81 % 1021,1 hPa 0,0 l/m 0 min 0 min 0,0 UV-I 77 W/m 0,0 km/h (0 Bft)
12.01.2014 15:20 6,1 C 3,9 C 81 % 1021,0 hPa 0,0 l/m 0 min 0 min 0,0 UV-I 90 W/m 7,7 km/h (2 Bft)
12.01.2014 15:22 6,1 C 3,9 C 81 % 1020,9 hPa 0,0 l/m 0 min 0 min 0,0 UV-I 83 W/m 12,9 km/h (3 Bft)
12.01.2014 15:24 6,1 C 3,9 C 81 % 1020,9 hPa 0,0 l/m 0 min 0 min 0,0 UV-I 60 W/m 12,9 km/h (3 Bft)
12.01.2014 15:26 6,1 C 4,4 C 81 % 1020,9 hPa 0,0 l/m 0 min 0 min 0,0 UV-I 44 W/m 12,9 km/h (3 Bft)
12.01.2014 15:28 6,1 C 4,4 C 80 % 1020,8 hPa 0,0 l/m 0 min 0 min 0,0 UV-I 42 W/m 18,0 km/h (3 Bft)
12.01.2014 15:30 6,1 C 4,4 C 80 % 1020,8 hPa 0,0 l/m 0 min 0 min 0,0 UV-I 42 W/m 7,7 km/h (2 Bft)
12.01.2014 15:32 6,1 C 3,9 C 80 % 1020,7 hPa 0,0 l/m 0 min 0 min 0,0 UV-I 40 W/m 12,9 km/h (3 Bft)
12.01.2014 15:34 6,0 C 3,9 C 80 % 1020,6 hPa 0,0 l/m 0 min 0 min 0,0 UV-I 40 W/m 10,3 km/h (2 Bft)
12.01.2014 15:36 6,0 C 3,9 C 80 % 1020,6 hPa 0,0 l/m 0 min 0 min 0,0 UV-I 39 W/m 7,7 km/h (2 Bft)
12.01.2014 15:38 5,9 C 3,9 C 80 % 1020,7 hPa 0,0 l/m 0 min 0 min 0,0 UV-I 39 W/m 10,3 km/h (2 Bft)
12.01.2014 15:40 5,9 C 3,9 C 80 % 1020,6 hPa 0,0 l/m 0 min 0 min 0,0 UV-I 39 W/m 12,9 km/h (3 Bft)
12.01.2014 15:42 5,8 C 3,9 C 81 % 1020,5 hPa 0,0 l/m 0 min 0 min 0,0 UV-I 37 W/m 7,7 km/h (2 Bft)
12.01.2014 15:44 5,8 C 3,9 C 81 % 1020,6 hPa 0,0 l/m 0 min 0 min 0,0 UV-I 37 W/m 12,9 km/h (3 Bft)
12.01.2014 15:46 5,8 C 3,9 C 81 % 1020,5 hPa 0,0 l/m 0 min 0 min 0,0 UV-I 37 W/m 10,3 km/h (2 Bft)
12.01.2014 15:48 5,8 C 3,9 C 81 % 1020,5 hPa 0,0 l/m 0 min 0 min 0,0 UV-I 35 W/m 7,7 km/h (2 Bft)
12.01.2014 15:50 5,7 C 3,9 C 81 % 1020,4 hPa 0,0 l/m 0 min 0 min 0,0 UV-I 35 W/m 10,3 km/h (2 Bft)
12.01.2014 15:52 5,7 C 3,9 C 81 % 1020,4 hPa 0,0 l/m 0 min 0 min 0,0 UV-I 33 W/m 7,7 km/h (2 Bft)
12.01.2014 15:54 5,7 C 3,9 C 81 % 1020,4 hPa 0,0 l/m 0 min 0 min 0,0 UV-I 33 W/m 10,3 km/h (2 Bft)
12.01.2014 15:56 5,6 C 3,3 C 82 % 1020,3 hPa 0,0 l/m 0 min 0 min 0,0 UV-I 32 W/m 10,3 km/h (2 Bft)
12.01.2014 15:58 5,6 C 3,3 C 82 % 1020,3 hPa 0,0 l/m 0 min 0 min 0,0 UV-I 30 W/m 2,6 km/h (1 Bft)
12.01.2014 16:00 5,5 C 3,3 C 82 % 1020,3 hPa 0,0 l/m 0 min 0 min 0,0 UV-I 30 W/m 0,0 km/h (0 Bft)
12.01.2014 16:02 5,5 C 3,3 C 82 % 1020,3 hPa 0,0 l/m 0 min 0 min 0,0 UV-I 28 W/m 0,0 km/h (0 Bft)
12.01.2014 16:04 5,4 C 3,3 C 82 % 1020,2 hPa 0,0 l/m 0 min 0 min 0,0 UV-I 28 W/m 7,7 km/h (2 Bft)
12.01.2014 16:06 5,4 C 3,3 C 83 % 1020,2 hPa 0,0 l/m 0 min 0 min 0,0 UV-I 26 W/m 10,3 km/h (2 Bft)
12.01.2014 16:08 5,3 C 3,3 C 83 % 1020,1 hPa 0,0 l/m 0 min 0 min 0,0 UV-I 26 W/m 5,1 km/h (1 Bft)
12.01.2014 16:10 5,3 C 3,3 C 83 % 1020,0 hPa 0,0 l/m 0 min 0 min 0,0 UV-I 25 W/m 10,3 km/h (2 Bft)
12.01.2014 16:12 5,3 C 3,3 C 83 % 1020,0 hPa 0,0 l/m 0 min 0 min 0,0 UV-I 25 W/m 7,7 km/h (2 Bft)
12.01.2014 16:14 5,3 C 3,3 C 83 % 1020,0 hPa 0,0 l/m 0 min 0 min 0,0 UV-I 23 W/m 15,4 km/h (3 Bft)
12.01.2014 16:16 5,3 C 3,3 C 83 % 1020,0 hPa 0,0 l/m 0 min 0 min 0,0 UV-I 21 W/m 5,1 km/h (1 Bft)
12.01.2014 16:18 5,2 C 2,8 C 83 % 1019,9 hPa 0,0 l/m 0 min 0 min 0,0 UV-I 21 W/m 0,0 km/h (0 Bft)
12.01.2014 16:20 5,2 C 2,8 C 83 % 1019,9 hPa 0,0 l/m 0 min 0 min 0,0 UV-I 21 W/m 0,0 km/h (0 Bft)
12.01.2014 16:22 5,1 C 2,8 C 83 % 1019,8 hPa 0,0 l/m 0 min 0 min 0,0 UV-I 19 W/m 12,9 km/h (3 Bft)
12.01.2014 16:24 5,1 C 2,8 C 83 % 1019,8 hPa 0,0 l/m 0 min 0 min 0,0 UV-I 19 W/m 10,3 km/h (2 Bft)
12.01.2014 16:26 5,0 C 2,8 C 83 % 1019,7 hPa 0,0 l/m 0 min 0 min 0,0 UV-I 18 W/m 7,7 km/h (2 Bft)
12.01.2014 16:28 5,0 C 2,8 C 83 % 1019,7 hPa 0,0 l/m 0 min 0 min 0,0 UV-I 18 W/m 7,7 km/h (2 Bft)
12.01.2014 16:30 4,9 C 2,8 C 83 % 1019,6 hPa 0,0 l/m 0 min 0 min 0,0 UV-I 16 W/m 12,9 km/h (3 Bft)
12.01.2014 16:32 4,9 C 2,8 C 82 % 1019,6 hPa 0,0 l/m 0 min 0 min 0,0 UV-I 14 W/m 5,1 km/h (1 Bft)
12.01.2014 16:34 4,9 C 2,8 C 82 % 1019,5 hPa 0,0 l/m 0 min 0 min 0,0 UV-I 14 W/m 10,3 km/h (2 Bft)
12.01.2014 16:36 4,9 C 2,8 C 82 % 1019,4 hPa 0,0 l/m 0 min 0 min 0,0 UV-I 12 W/m 5,1 km/h (1 Bft)
12.01.2014 16:38 4,8 C 2,8 C 82 % 1019,4 hPa 0,0 l/m 0 min 0 min 0,0 UV-I 11 W/m 7,7 km/h (2 Bft)
12.01.2014 16:40 4,8 C 2,8 C 82 % 1019,4 hPa 0,0 l/m 0 min 0 min 0,0 UV-I 9 W/m 10,3 km/h (2 Bft)
12.01.2014 16:42 4,8 C 2,8 C 82 % 1019,4 hPa 0,0 l/m 0 min 0 min 0,0 UV-I 9 W/m 12,9 km/h (3 Bft)
12.01.2014 16:44 4,8 C 2,8 C 82 % 1019,4 hPa 0,0 l/m 0 min 0 min 0,0 UV-I 7 W/m 10,3 km/h (2 Bft)
12.01.2014 16:46 4,7 C 2,8 C 82 % 1019,4 hPa 0,0 l/m 0 min 0 min 0,0 UV-I 5 W/m 10,3 km/h (2 Bft)
12.01.2014 16:48 4,7 C 2,8 C 82 % 1019,3 hPa 0,0 l/m 0 min 0 min 0,0 UV-I 5 W/m 7,7 km/h (2 Bft)
12.01.2014 16:50 4,6 C 2,2 C 82 % 1019,3 hPa 0,0 l/m 0 min 0 min 0,0 UV-I 5 W/m 7,7 km/h (2 Bft)
12.01.2014 16:52 4,6 C 2,2 C 82 % 1019,3 hPa 0,0 l/m 0 min 0 min 0,0 UV-I 0 W/m 10,3 km/h (2 Bft)
12.01.2014 16:54 4,5 C 2,2 C 82 % 1019,2 hPa 0,0 l/m 0 min 0 min 0,0 UV-I 0 W/m 0,0 km/h (0 Bft)
12.01.2014 16:56 4,5 C 2,2 C 82 % 1019,1 hPa 0,0 l/m 0 min 0 min 0,0 UV-I 0 W/m 12,9 km/h (3 Bft)
12.01.2014 16:58 4,4 C 2,2 C 82 % 1019,0 hPa 0,0 l/m 0 min 0 min 0,0 UV-I 0 W/m 0,0 km/h (0 Bft)
12.01.2014 17:00 4,4 C 2,2 C 82 % 1019,0 hPa 0,0 l/m 0 min 0 min 0,0 UV-I 0 W/m 12,9 km/h (3 Bft)
12.01.2014 17:02 4,3 C 2,2 C 82 % 1018,9 hPa 0,0 l/m 0 min 0 min 0,0 UV-I 0 W/m 5,1 km/h (1 Bft)
12.01.2014 17:04 4,3 C 2,2 C 82 % 1019,0 hPa 0,0 l/m 0 min 0 min 0,0 UV-I 0 W/m 5,1 km/h (1 Bft)
12.01.2014 17:06 4,3 C 2,2 C 83 % 1018,9 hPa 0,0 l/m 0 min 0 min 0,0 UV-I 0 W/m 15,4 km/h (3 Bft)
12.01.2014 17:08 4,2 C 2,2 C 83 % 1019,0 hPa 0,0 l/m 0 min 0 min 0,0 UV-I 0 W/m 5,1 km/h (1 Bft)
12.01.2014 17:10 4,2 C 2,2 C 83 % 1018,9 hPa 0,0 l/m 0 min 0 min 0,0 UV-I 0 W/m 7,7 km/h (2 Bft)
12.01.2014 17:12 4,1 C 1,7 C 83 % 1018,9 hPa 0,0 l/m 0 min 0 min 0,0 UV-I 0 W/m 2,6 km/h (1 Bft)
12.01.2014 17:14 4,1 C 1,7 C 83 % 1019,0 hPa 0,0 l/m 0 min 0 min 0,0 UV-I 0 W/m 0,0 km/h (0 Bft)
12.01.2014 17:16 4,0 C 1,7 C 83 % 1018,9 hPa 0,0 l/m 0 min 0 min 0,0 UV-I 0 W/m 7,7 km/h (2 Bft)
12.01.2014 17:18 4,0 C 1,7 C 83 % 1019,0 hPa 0,0 l/m 0 min 0 min 0,0 UV-I 0 W/m 2,6 km/h (1 Bft)
12.01.2014 17:20 3,9 C 1,7 C 83 % 1018,9 hPa 0,0 l/m 0 min 0 min 0,0 UV-I 0 W/m 7,7 km/h (2 Bft)
12.01.2014 17:22 3,9 C 1,7 C 83 % 1019,0 hPa 0,0 l/m 0 min 0 min 0,0 UV-I 0 W/m 2,6 km/h (1 Bft)
12.01.2014 17:24 3,9 C 1,7 C 84 % 1018,9 hPa 0,0 l/m 0 min 0 min 0,0 UV-I 0 W/m 0,0 km/h (0 Bft)
12.01.2014 17:26 3,9 C 1,7 C 84 % 1018,9 hPa 0,0 l/m 0 min 0 min 0,0 UV-I 0 W/m 10,3 km/h (2 Bft)
12.01.2014 17:28 3,9 C 1,7 C 84 % 1018,8 hPa 0,0 l/m 0 min 0 min 0,0 UV-I 0 W/m 15,4 km/h (3 Bft)
12.01.2014 17:30 3,9 C 1,7 C 84 % 1018,9 hPa 0,0 l/m 0 min 0 min 0,0 UV-I 0 W/m 0,0 km/h (0 Bft)
12.01.2014 17:32 3,8 C 1,7 C 84 % 1018,9 hPa 0,0 l/m 0 min 0 min 0,0 UV-I 0 W/m 0,0 km/h (0 Bft)
12.01.2014 17:34 3,8 C 1,7 C 84 % 1018,9 hPa 0,0 l/m 0 min 0 min 0,0 UV-I 0 W/m 7,7 km/h (2 Bft)
12.01.2014 17:36 3,8 C 1,7 C 84 % 1018,8 hPa 0,0 l/m 0 min 0 min 0,0 UV-I 0 W/m 2,6 km/h (1 Bft)
12.01.2014 17:38 3,7 C 1,7 C 84 % 1018,8 hPa 0,0 l/m 0 min 0 min 0,0 UV-I 0 W/m 0,0 km/h (0 Bft)
12.01.2014 17:40 3,7 C 1,7 C 84 % 1018,8 hPa 0,0 l/m 0 min 0 min 0,0 UV-I 0 W/m 0,0 km/h (0 Bft)
12.01.2014 17:42 3,7 C 1,7 C 84 % 1018,8 hPa 0,0 l/m 0 min 0 min 0,0 UV-I 0 W/m 0,0 km/h (0 Bft)
12.01.2014 17:44 3,6 C 1,1 C 84 % 1018,8 hPa 0,0 l/m 0 min 0 min 0,0 UV-I 0 W/m 2,6 km/h (1 Bft)
12.01.2014 17:46 3,6 C 1,1 C 84 % 1018,8 hPa 0,0 l/m 0 min 0 min 0,0 UV-I 0 W/m 0,0 km/h (0 Bft)
12.01.2014 17:48 3,5 C 1,1 C 84 % 1018,8 hPa 0,0 l/m 0 min 0 min 0,0 UV-I 0 W/m 2,6 km/h (1 Bft)
12.01.2014 17:50 3,5 C 1,1 C 85 % 1018,7 hPa 0,0 l/m 0 min 0 min 0,0 UV-I 0 W/m 5,1 km/h (1 Bft)
12.01.2014 17:52 3,4 C 1,1 C 85 % 1018,7 hPa 0,0 l/m 0 min 0 min 0,0 UV-I 0 W/m 0,0 km/h (0 Bft)
12.01.2014 17:54 3,4 C 1,1 C 85 % 1018,7 hPa 0,0 l/m 0 min 0 min 0,0 UV-I 0 W/m 2,6 km/h (1 Bft)
12.01.2014 17:56 3,4 C 1,1 C 85 % 1018,7 hPa 0,0 l/m 0 min 0 min 0,0 UV-I 0 W/m 7,7 km/h (2 Bft)
12.01.2014 17:58 3,3 C 1,1 C 85 % 1018,6 hPa 0,0 l/m 0 min 0 min 0,0 UV-I 0 W/m 5,1 km/h (1 Bft)
12.01.2014 18:00 3,3 C 1,1 C 85 % 1018,7 hPa 0,0 l/m 0 min 0 min 0,0 UV-I 0 W/m 5,1 km/h (1 Bft)
12.01.2014 18:02 3,2 C 1,1 C 85 % 1018,6 hPa 0,0 l/m 0 min 0 min 0,0 UV-I 0 W/m 5,1 km/h (1 Bft)
12.01.2014 18:04 3,2 C 1,1 C 85 % 1018,5 hPa 0,0 l/m 0 min 0 min 0,0 UV-I 0 W/m 10,3 km/h (2 Bft)
12.01.2014 18:06 3,2 C 1,1 C 85 % 1018,4 hPa 0,0 l/m 0 min 0 min 0,0 UV-I 0 W/m 5,1 km/h (1 Bft)
12.01.2014 18:08 3,2 C 1,1 C 85 % 1018,3 hPa 0,0 l/m 0 min 0 min 0,0 UV-I 0 W/m 18,0 km/h (3 Bft)
12.01.2014 18:10 3,2 C 1,1 C 85 % 1018,3 hPa 0,0 l/m 0 min 0 min 0,0 UV-I 0 W/m 5,1 km/h (1 Bft)
12.01.2014 18:12 3,1 C 1,1 C 85 % 1018,2 hPa 0,0 l/m 0 min 0 min 0,0 UV-I 0 W/m 12,9 km/h (3 Bft)
12.01.2014 18:14 3,2 C 1,1 C 86 % 1018,2 hPa 0,0 l/m 0 min 0 min 0,0 UV-I 0 W/m 10,3 km/h (2 Bft)
12.01.2014 18:16 3,1 C 1,1 C 86 % 1018,2 hPa 0,0 l/m 0 min 0 min 0,0 UV-I 0 W/m 10,3 km/h (2 Bft)
12.01.2014 18:18 3,1 C 1,1 C 86 % 1018,1 hPa 0,0 l/m 0 min 0 min 0,0 UV-I 0 W/m 10,3 km/h (2 Bft)
12.01.2014 18:20 3,2 C 1,1 C 86 % 1018,1 hPa 0,0 l/m 0 min 0 min 0,0 UV-I 0 W/m 12,9 km/h (3 Bft)
12.01.2014 18:22 3,2 C 1,1 C 86 % 1017,9 hPa 0,0 l/m 0 min 0 min 0,0 UV-I 0 W/m 12,9 km/h (3 Bft)
12.01.2014 18:24 3,2 C 1,1 C 86 % 1017,9 hPa 0,0 l/m 0 min 0 min 0,0 UV-I 0 W/m 12,9 km/h (3 Bft)
12.01.2014 18:26 3,3 C 1,7 C 86 % 1017,9 hPa 0,0 l/m 0 min 0 min 0,0 UV-I 0 W/m 15,4 km/h (3 Bft)
12.01.2014 18:28 3,3 C 1,7 C 85 % 1017,8 hPa 0,0 l/m 0 min 0 min 0,0 UV-I 0 W/m 10,3 km/h (2 Bft)
12.01.2014 18:30 3,4 C 1,7 C 85 % 1017,8 hPa 0,0 l/m 0 min 0 min 0,0 UV-I 0 W/m 18,0 km/h (3 Bft)
12.01.2014 18:32 3,4 C 1,7 C 85 % 1017,8 hPa 0,0 l/m 0 min 0 min 0,0 UV-I 0 W/m 10,3 km/h (2 Bft)
12.01.2014 18:34 3,4 C 1,7 C 85 % 1017,7 hPa 0,0 l/m 0 min 0 min 0,0 UV-I 0 W/m 7,7 km/h (2 Bft)
12.01.2014 18:36 3,4 C 1,7 C 85 % 1017,6 hPa 0,0 l/m 0 min 0 min 0,0 UV-I 0 W/m 10,3 km/h (2 Bft)
12.01.2014 18:38 3,4 C 1,7 C 85 % 1017,6 hPa 0,0 l/m 0 min 0 min 0,0 UV-I 0 W/m 12,9 km/h (3 Bft)
12.01.2014 18:40 3,4 C 1,7 C 85 % 1017,6 hPa 0,0 l/m 0 min 0 min 0,0 UV-I 0 W/m 7,7 km/h (2 Bft)
12.01.2014 18:42 3,4 C 1,7 C 85 % 1017,6 hPa 0,0 l/m 0 min 0 min 0,0 UV-I 0 W/m 18,0 km/h (3 Bft)
12.01.2014 18:44 3,4 C 1,7 C 85 % 1017,6 hPa 0,0 l/m 0 min 0 min 0,0 UV-I 0 W/m 5,1 km/h (1 Bft)
12.01.2014 18:46 3,4 C 1,1 C 85 % 1017,6 hPa 0,0 l/m 0 min 0 min 0,0 UV-I 0 W/m 12,9 km/h (3 Bft)
12.01.2014 18:48 3,3 C 1,1 C 85 % 1017,6 hPa 0,0 l/m 0 min 0 min 0,0 UV-I 0 W/m 12,9 km/h (3 Bft)
12.01.2014 18:50 3,3 C 1,1 C 85 % 1017,5 hPa 0,0 l/m 0 min 0 min 0,0 UV-I 0 W/m 5,1 km/h (1 Bft)
12.01.2014 18:52 3,3 C 1,1 C 85 % 1017,5 hPa 0,0 l/m 0 min 0 min 0,0 UV-I 0 W/m 7,7 km/h (2 Bft)
12.01.2014 18:54 3,2 C 1,1 C 85 % 1017,5 hPa 0,0 l/m 0 min 0 min 0,0 UV-I 0 W/m 15,4 km/h (3 Bft)
12.01.2014 18:56 3,2 C 1,1 C 85 % 1017,5 hPa 0,0 l/m 0 min 0 min 0,0 UV-I 0 W/m 12,9 km/h (3 Bft)
12.01.2014 18:58 3,2 C 1,1 C 85 % 1017,4 hPa 0,0 l/m 0 min 0 min 0,0 UV-I 0 W/m 10,3 km/h (2 Bft)
12.01.2014 19:00 3,2 C 1,1 C 85 % 1017,4 hPa 0,0 l/m 0 min 0 min 0,0 UV-I 0 W/m 12,9 km/h (3 Bft)
12.01.2014 19:02 3,2 C 1,1 C 85 % 1017,3 hPa 0,0 l/m 0 min 0 min 0,0 UV-I 0 W/m 10,3 km/h (2 Bft)
12.01.2014 19:04 3,2 C 1,1 C 85 % 1017,4 hPa 0,0 l/m 0 min 0 min 0,0 UV-I 0 W/m 10,3 km/h (2 Bft)
12.01.2014 19:06 3,2 C 1,1 C 85 % 1017,3 hPa 0,0 l/m 0 min 0 min 0,0 UV-I 0 W/m 15,4 km/h (3 Bft)
12.01.2014 19:08 3,1 C 1,1 C 85 % 1017,3 hPa 0,0 l/m 0 min 0 min 0,0 UV-I 0 W/m 7,7 km/h (2 Bft)
12.01.2014 19:10 3,1 C 1,1 C 85 % 1017,3 hPa 0,0 l/m 0 min 0 min 0,0 UV-I 0 W/m 7,7 km/h (2 Bft)
12.01.2014 19:12 3,1 C 1,1 C 85 % 1017,3 hPa 0,0 l/m 0 min 0 min 0,0 UV-I 0 W/m 18,0 km/h (3 Bft)
12.01.2014 19:14 3,1 C 1,1 C 85 % 1017,3 hPa 0,0 l/m 0 min 0 min 0,0 UV-I 0 W/m 12,9 km/h (3 Bft)
12.01.2014 19:16 3,1 C 1,1 C 85 % 1017,2 hPa 0,0 l/m 0 min 0 min 0,0 UV-I 0 W/m 18,0 km/h (3 Bft)
12.01.2014 19:18 3,1 C 1,1 C 85 % 1017,2 hPa 0,0 l/m 0 min 0 min 0,0 UV-I 0 W/m 18,0 km/h (3 Bft)
12.01.2014 19:20 3,1 C 1,1 C 85 % 1017,1 hPa 0,0 l/m 0 min 0 min 0,0 UV-I 0 W/m 15,4 km/h (3 Bft)
12.01.2014 19:22 3,1 C 1,1 C 85 % 1017,2 hPa 0,0 l/m 0 min 0 min 0,0 UV-I 0 W/m 7,7 km/h (2 Bft)
12.01.2014 19:24 3,1 C 1,1 C 85 % 1017,2 hPa 0,0 l/m 0 min 0 min 0,0 UV-I 0 W/m 10,3 km/h (2 Bft)
12.01.2014 19:26 3,1 C 1,1 C 86 % 1017,2 hPa 0,0 l/m 0 min 0 min 0,0 UV-I 0 W/m 15,4 km/h (3 Bft)
12.01.2014 19:28 3,1 C 1,1 C 86 % 1017,2 hPa 0,0 l/m 0 min 0 min 0,0 UV-I 0 W/m 7,7 km/h (2 Bft)
12.01.2014 19:30 3,0 C 1,1 C 86 % 1017,2 hPa 0,0 l/m 0 min 0 min 0,0 UV-I 0 W/m 12,9 km/h (3 Bft)
12.01.2014 19:32 3,0 C 1,1 C 86 % 1017,2 hPa 0,0 l/m 0 min 0 min 0,0 UV-I 0 W/m 12,9 km/h (3 Bft)
12.01.2014 19:34 2,9 C 1,1 C 86 % 1017,2 hPa 0,0 l/m 0 min 0 min 0,0 UV-I 0 W/m 7,7 km/h (2 Bft)
12.01.2014 19:36 2,9 C 1,1 C 86 % 1017,2 hPa 0,0 l/m 0 min 0 min 0,0 UV-I 0 W/m 12,9 km/h (3 Bft)
12.01.2014 19:38 2,9 C 1,1 C 86 % 1017,1 hPa 0,0 l/m 0 min 0 min 0,0 UV-I 0 W/m 18,0 km/h (3 Bft)
12.01.2014 19:40 2,9 C 1,1 C 86 % 1017,2 hPa 0,0 l/m 0 min 0 min 0,0 UV-I 0 W/m 10,3 km/h (2 Bft)
12.01.2014 19:42 2,9 C 1,1 C 86 % 1017,2 hPa 0,0 l/m 0 min 0 min 0,0 UV-I 0 W/m 12,9 km/h (3 Bft)
12.01.2014 19:44 2,9 C 1,1 C 86 % 1017,2 hPa 0,0 l/m 0 min 0 min 0,0 UV-I 0 W/m 12,9 km/h (3 Bft)
12.01.2014 19:46 2,9 C 1,1 C 86 % 1017,3 hPa 0,0 l/m 0 min 0 min 0,0 UV-I 0 W/m 10,3 km/h (2 Bft)
12.01.2014 19:48 2,8 C 1,1 C 86 % 1017,2 hPa 0,0 l/m 0 min 0 min 0,0 UV-I 0 W/m 10,3 km/h (2 Bft)
12.01.2014 19:50 2,8 C 1,1 C 86 % 1017,1 hPa 0,0 l/m 0 min 0 min 0,0 UV-I 0 W/m 15,4 km/h (3 Bft)
12.01.2014 19:52 2,8 C 1,1 C 86 % 1017,2 hPa 0,0 l/m 0 min 0 min 0,0 UV-I 0 W/m 12,9 km/h (3 Bft)
12.01.2014 19:54 2,7 C 0,6 C 86 % 1017,1 hPa 0,0 l/m 0 min 0 min 0,0 UV-I 0 W/m 12,9 km/h (3 Bft)
12.01.2014 19:56 2,7 C 0,6 C 86 % 1017,2 hPa 0,0 l/m 0 min 0 min 0,0 UV-I 0 W/m 7,7 km/h (2 Bft)
12.01.2014 19:58 2,7 C 0,6 C 86 % 1017,1 hPa 0,0 l/m 0 min 0 min 0,0 UV-I 0 W/m 10,3 km/h (2 Bft)
12.01.2014 20:00 2,7 C 0,6 C 86 % 1017,2 hPa 0,0 l/m 0 min 0 min 0,0 UV-I 0 W/m 5,1 km/h (1 Bft)
12.01.2014 20:02 2,6 C 0,6 C 86 % 1017,1 hPa 0,0 l/m 0 min 0 min 0,0 UV-I 0 W/m 10,3 km/h (2 Bft)
12.01.2014 20:04 2,6 C 0,6 C 87 % 1017,1 hPa 0,0 l/m 0 min 0 min 0,0 UV-I 0 W/m 7,7 km/h (2 Bft)
12.01.2014 20:06 2,6 C 0,6 C 87 % 1017,1 hPa 0,0 l/m 0 min 0 min 0,0 UV-I 0 W/m 7,7 km/h (2 Bft)
12.01.2014 20:08 2,6 C 0,6 C 87 % 1017,1 hPa 0,0 l/m 0 min 0 min 0,0 UV-I 0 W/m 10,3 km/h (2 Bft)
12.01.2014 20:10 2,6 C 0,6 C 87 % 1017,1 hPa 0,0 l/m 0 min 0 min 0,0 UV-I 0 W/m 15,4 km/h (3 Bft)
12.01.2014 20:12 2,6 C 0,6 C 87 % 1017,1 hPa 0,0 l/m 0 min 0 min 0,0 UV-I 0 W/m 12,9 km/h (3 Bft)
12.01.2014 20:14 2,6 C 0,6 C 87 % 1017,1 hPa 0,0 l/m 0 min 0 min 0,0 UV-I 0 W/m 20,6 km/h (4 Bft)
12.01.2014 20:16 2,6 C 0,6 C 87 % 1017,1 hPa 0,0 l/m 0 min 0 min 0,0 UV-I 0 W/m 15,4 km/h (3 Bft)
12.01.2014 20:18 2,6 C 0,6 C 87 % 1017,0 hPa 0,0 l/m 0 min 0 min 0,0 UV-I 0 W/m 23,2 km/h (4 Bft)
12.01.2014 20:20 2,6 C 0,6 C 87 % 1017,0 hPa 0,0 l/m 0 min 0 min 0,0 UV-I 0 W/m 15,4 km/h (3 Bft)
12.01.2014 20:22 2,6 C 0,6 C 87 % 1016,9 hPa 0,0 l/m 0 min 0 min 0,0 UV-I 0 W/m 23,2 km/h (4 Bft)
12.01.2014 20:24 2,6 C 0,6 C 87 % 1016,9 hPa 0,0 l/m 0 min 0 min 0,0 UV-I 0 W/m 20,6 km/h (4 Bft)
12.01.2014 20:26 2,6 C 1,1 C 87 % 1016,7 hPa 0,0 l/m 0 min 0 min 0,0 UV-I 0 W/m 15,4 km/h (3 Bft)
12.01.2014 20:28 2,6 C 1,1 C 87 % 1016,7 hPa 0,0 l/m 0 min 0 min 0,0 UV-I 0 W/m 15,4 km/h (3 Bft)
12.01.2014 20:30 2,6 C 1,1 C 87 % 1016,6 hPa 0,0 l/m 0 min 0 min 0,0 UV-I 0 W/m 10,3 km/h (2 Bft)
12.01.2014 20:32 2,5 C 0,6 C 87 % 1016,5 hPa 0,0 l/m 0 min 0 min 0,0 UV-I 0 W/m 18,0 km/h (3 Bft)
12.01.2014 20:34 2,5 C 0,6 C 87 % 1016,6 hPa 0,0 l/m 0 min 0 min 0,0 UV-I 0 W/m 10,3 km/h (2 Bft)
12.01.2014 20:36 2,4 C 0,6 C 87 % 1016,5 hPa 0,0 l/m 0 min 0 min 0,0 UV-I 0 W/m 23,2 km/h (4 Bft)
12.01.2014 20:38 2,4 C 0,6 C 87 % 1016,5 hPa 0,0 l/m 0 min 0 min 0,0 UV-I 0 W/m 20,6 km/h (4 Bft)
12.01.2014 20:40 2,4 C 0,6 C 87 % 1016,4 hPa 0,0 l/m 0 min 0 min 0,0 UV-I 0 W/m 20,6 km/h (4 Bft)
12.01.2014 20:42 2,4 C 0,6 C 87 % 1016,4 hPa 0,0 l/m 0 min 0 min 0,0 UV-I 0 W/m 23,2 km/h (4 Bft)
12.01.2014 20:44 2,4 C 0,6 C 87 % 1016,3 hPa 0,0 l/m 0 min 0 min 0,0 UV-I 0 W/m 18,0 km/h (3 Bft)
12.01.2014 20:46 2,4 C 1,1 C 87 % 1016,2 hPa 0,0 l/m 0 min 0 min 0,0 UV-I 0 W/m 12,9 km/h (3 Bft)
12.01.2014 20:48 2,4 C 1,1 C 87 % 1016,2 hPa 0,0 l/m 0 min 0 min 0,0 UV-I 0 W/m 20,6 km/h (4 Bft)
12.01.2014 20:50 2,4 C 0,6 C 87 % 1016,1 hPa 0,0 l/m 0 min 0 min 0,0 UV-I 0 W/m 15,4 km/h (3 Bft)
12.01.2014 20:52 2,4 C 1,1 C 87 % 1015,9 hPa 0,0 l/m 0 min 0 min 0,0 UV-I 0 W/m 18,0 km/h (3 Bft)
12.01.2014 20:54 2,4 C 1,1 C 87 % 1015,9 hPa 0,0 l/m 0 min 0 min 0,0 UV-I 0 W/m 20,6 km/h (4 Bft)
12.01.2014 20:56 2,4 C 1,1 C 87 % 1015,9 hPa 0,0 l/m 0 min 0 min 0,0 UV-I 0 W/m 15,4 km/h (3 Bft)
12.01.2014 20:58 2,4 C 1,1 C 87 % 1015,9 hPa 0,0 l/m 0 min 0 min 0,0 UV-I 0 W/m 7,7 km/h (2 Bft)
12.01.2014 21:00 2,4 C 0,6 C 87 % 1015,8 hPa 0,0 l/m 0 min 0 min 0,0 UV-I 0 W/m 15,4 km/h (3 Bft)
12.01.2014 21:02 2,4 C 0,6 C 87 % 1015,7 hPa 0,0 l/m 0 min 0 min 0,0 UV-I 0 W/m 18,0 km/h (3 Bft)
12.01.2014 21:04 2,4 C 0,6 C 87 % 1015,6 hPa 0,0 l/m 0 min 0 min 0,0 UV-I 0 W/m 12,9 km/h (3 Bft)
12.01.2014 21:06 2,3 C 0,6 C 87 % 1015,7 hPa 0,0 l/m 0 min 0 min 0,0 UV-I 0 W/m 18,0 km/h (3 Bft)
12.01.2014 21:08 2,4 C 0,6 C 87 % 1015,6 hPa 0,0 l/m 0 min 0 min 0,0 UV-I 0 W/m 15,4 km/h (3 Bft)
12.01.2014 21:10 2,4 C 1,1 C 87 % 1015,5 hPa 0,0 l/m 0 min 0 min 0,0 UV-I 0 W/m 20,6 km/h (4 Bft)
12.01.2014 21:12 2,4 C 1,1 C 87 % 1015,6 hPa 0,0 l/m 0 min 0 min 0,0 UV-I 0 W/m 23,2 km/h (4 Bft)
12.01.2014 21:14 2,4 C 1,1 C 86 % 1015,6 hPa 0,0 l/m 0 min 0 min 0,0 UV-I 0 W/m 12,9 km/h (3 Bft)
12.01.2014 21:16 2,4 C 1,1 C 86 % 1015,6 hPa 0,0 l/m 0 min 0 min 0,0 UV-I 0 W/m 25,7 km/h (4 Bft)
12.01.2014 21:18 2,3 C 0,6 C 87 % 1015,6 hPa 0,0 l/m 0 min 0 min 0,0 UV-I 0 W/m 28,3 km/h (4 Bft)
12.01.2014 21:20 2,3 C 0,6 C 87 % 1015,6 hPa 0,0 l/m 0 min 0 min 0,0 UV-I 0 W/m 20,6 km/h (4 Bft)
12.01.2014 21:22 2,3 C 0,6 C 87 % 1015,6 hPa 0,0 l/m 0 min 0 min 0,0 UV-I 0 W/m 18,0 km/h (3 Bft)
12.01.2014 21:24 2,3 C 0,6 C 86 % 1015,6 hPa 0,0 l/m 0 min 0 min 0,0 UV-I 0 W/m 18,0 km/h (3 Bft)
12.01.2014 21:26 2,3 C 0,6 C 86 % 1015,5 hPa 0,0 l/m 0 min 0 min 0,0 UV-I 0 W/m 10,3 km/h (2 Bft)
12.01.2014 21:28 2,2 C 0,6 C 86 % 1015,5 hPa 0,0 l/m 0 min 0 min 0,0 UV-I 0 W/m 20,6 km/h (4 Bft)
12.01.2014 21:30 2,2 C 0,6 C 87 % 1015,5 hPa 0,0 l/m 0 min 0 min 0,0 UV-I 0 W/m 12,9 km/h (3 Bft)
12.01.2014 21:32 2,2 C 0,6 C 87 % 1015,4 hPa 0,0 l/m 0 min 0 min 0,0 UV-I 0 W/m 18,0 km/h (3 Bft)
12.01.2014 21:34 2,2 C 0,6 C 87 % 1015,4 hPa 0,0 l/m 0 min 0 min 0,0 UV-I 0 W/m 18,0 km/h (3 Bft)
12.01.2014 21:36 2,2 C 0,6 C 87 % 1015,4 hPa 0,0 l/m 0 min 0 min 0,0 UV-I 0 W/m 18,0 km/h (3 Bft)
12.01.2014 21:38 2,2 C 0,6 C 87 % 1015,4 hPa 0,0 l/m 0 min 0 min 0,0 UV-I 0 W/m 30,9 km/h (5 Bft)
12.01.2014 21:40 2,2 C 0,6 C 87 % 1015,3 hPa 0,0 l/m 0 min 0 min 0,0 UV-I 0 W/m 2,6 km/h (1 Bft)
12.01.2014 21:42 2,2 C 0,6 C 87 % 1015,2 hPa 0,0 l/m 0 min 0 min 0,0 UV-I 0 W/m 23,2 km/h (4 Bft)
12.01.2014 21:44 2,2 C 0,6 C 87 % 1015,2 hPa 0,0 l/m 0 min 0 min 0,0 UV-I 0 W/m 12,9 km/h (3 Bft)
12.01.2014 21:46 2,2 C 0,6 C 86 % 1015,2 hPa 0,0 l/m 0 min 0 min 0,0 UV-I 0 W/m 15,4 km/h (3 Bft)
12.01.2014 21:48 2,2 C 0,6 C 86 % 1015,2 hPa 0,0 l/m 0 min 0 min 0,0 UV-I 0 W/m 18,0 km/h (3 Bft)
12.01.2014 21:50 2,2 C 0,6 C 86 % 1015,2 hPa 0,0 l/m 0 min 0 min 0,0 UV-I 0 W/m 15,4 km/h (3 Bft)
12.01.2014 21:52 2,2 C 0,6 C 86 % 1015,1 hPa 0,0 l/m 0 min 0 min 0,0 UV-I 0 W/m 10,3 km/h (2 Bft)
12.01.2014 21:54 2,2 C 0,6 C 86 % 1015,0 hPa 0,0 l/m 0 min 0 min 0,0 UV-I 0 W/m 18,0 km/h (3 Bft)
12.01.2014 21:56 2,2 C 0,6 C 86 % 1015,0 hPa 0,0 l/m 0 min 0 min 0,0 UV-I 0 W/m 15,4 km/h (3 Bft)
12.01.2014 21:58 2,2 C 0,6 C 86 % 1015,0 hPa 0,0 l/m 0 min 0 min 0,0 UV-I 0 W/m 10,3 km/h (2 Bft)
12.01.2014 22:00 2,2 C 0,6 C 86 % 1015,0 hPa 0,0 l/m 0 min 0 min 0,0 UV-I 0 W/m 20,6 km/h (4 Bft)
12.01.2014 22:02 2,2 C 0,6 C 86 % 1015,0 hPa 0,0 l/m 0 min 0 min 0,0 UV-I 0 W/m 20,6 km/h (4 Bft)
12.01.2014 22:04 2,2 C 0,6 C 86 % 1015,0 hPa 0,0 l/m 0 min 0 min 0,0 UV-I 0 W/m 20,6 km/h (4 Bft)
12.01.2014 22:06 2,2 C 0,6 C 86 % 1015,0 hPa 0,0 l/m 0 min 0 min 0,0 UV-I 0 W/m 18,0 km/h (3 Bft)
12.01.2014 22:08 2,2 C 0,6 C 86 % 1014,9 hPa 0,0 l/m 0 min 0 min 0,0 UV-I 0 W/m 18,0 km/h (3 Bft)
12.01.2014 22:10 2,2 C 0,6 C 86 % 1014,9 hPa 0,0 l/m 0 min 0 min 0,0 UV-I 0 W/m 20,6 km/h (4 Bft)
12.01.2014 22:12 2,1 C 0,6 C 86 % 1014,9 hPa 0,0 l/m 0 min 0 min 0,0 UV-I 0 W/m 23,2 km/h (4 Bft)
12.01.2014 22:14 2,1 C 0,6 C 86 % 1014,8 hPa 0,0 l/m 0 min 0 min 0,0 UV-I 0 W/m 12,9 km/h (3 Bft)
12.01.2014 22:16 2,1 C 0,6 C 86 % 1014,7 hPa 0,0 l/m 0 min 0 min 0,0 UV-I 0 W/m 10,3 km/h (2 Bft)
12.01.2014 22:18 2,1 C 0,6 C 86 % 1014,7 hPa 0,0 l/m 0 min 0 min 0,0 UV-I 0 W/m 15,4 km/h (3 Bft)
12.01.2014 22:20 2,1 C 0,6 C 86 % 1014,7 hPa 0,0 l/m 0 min 0 min 0,0 UV-I 0 W/m 15,4 km/h (3 Bft)
12.01.2014 22:22 2,0 C 0,6 C 86 % 1014,7 hPa 0,0 l/m 0 min 0 min 0,0 UV-I 0 W/m 15,4 km/h (3 Bft)
12.01.2014 22:24 2,0 C 0,6 C 86 % 1014,6 hPa 0,0 l/m 0 min 0 min 0,0 UV-I 0 W/m 10,3 km/h (2 Bft)
12.01.2014 22:26 2,0 C 0,6 C 86 % 1014,6 hPa 0,0 l/m 0 min 0 min 0,0 UV-I 0 W/m 12,9 km/h (3 Bft)
12.01.2014 22:28 1,9 C 0,6 C 86 % 1014,5 hPa 0,0 l/m 0 min 0 min 0,0 UV-I 0 W/m 12,9 km/h (3 Bft)
12.01.2014 22:30 1,9 C 0,6 C 86 % 1014,5 hPa 0,0 l/m 0 min 0 min 0,0 UV-I 0 W/m 20,6 km/h (4 Bft)
12.01.2014 22:32 1,9 C 0,6 C 86 % 1014,4 hPa 0,0 l/m 0 min 0 min 0,0 UV-I 0 W/m 15,4 km/h (3 Bft)
12.01.2014 22:34 1,9 C 0,6 C 86 % 1014,4 hPa 0,0 l/m 0 min 0 min 0,0 UV-I 0 W/m 12,9 km/h (3 Bft)
12.01.2014 22:36 1,9 C 0,6 C 86 % 1014,5 hPa 0,0 l/m 0 min 0 min 0,0 UV-I 0 W/m 12,9 km/h (3 Bft)
12.01.2014 22:38 1,9 C 0,6 C 86 % 1014,5 hPa 0,0 l/m 0 min 0 min 0,0 UV-I 0 W/m 12,9 km/h (3 Bft)
12.01.2014 22:40 1,9 C 0,6 C 86 % 1014,4 hPa 0,0 l/m 0 min 0 min 0,0 UV-I 0 W/m 10,3 km/h (2 Bft)
12.01.2014 22:42 1,9 C 0,6 C 86 % 1014,4 hPa 0,0 l/m 0 min 0 min 0,0 UV-I 0 W/m 15,4 km/h (3 Bft)
12.01.2014 22:44 1,9 C 0,6 C 86 % 1014,4 hPa 0,0 l/m 0 min 0 min 0,0 UV-I 0 W/m 20,6 km/h (4 Bft)
12.01.2014 22:46 1,9 C 0,6 C 86 % 1014,4 hPa 0,0 l/m 0 min 0 min 0,0 UV-I 0 W/m 12,9 km/h (3 Bft)
12.01.2014 22:48 1,9 C 0,6 C 86 % 1014,4 hPa 0,0 l/m 0 min 0 min 0,0 UV-I 0 W/m 15,4 km/h (3 Bft)
12.01.2014 22:50 1,9 C 0,6 C 86 % 1014,3 hPa 0,0 l/m 0 min 0 min 0,0 UV-I 0 W/m 20,6 km/h (4 Bft)
12.01.2014 22:52 1,9 C 0,6 C 86 % 1014,2 hPa 0,0 l/m 0 min 0 min 0,0 UV-I 0 W/m 20,6 km/h (4 Bft)
12.01.2014 22:54 1,9 C 0,6 C 86 % 1014,2 hPa 0,0 l/m 0 min 0 min 0,0 UV-I 0 W/m 20,6 km/h (4 Bft)
12.01.2014 22:56 1,9 C 0,6 C 86 % 1014,1 hPa 0,0 l/m 0 min 0 min 0,0 UV-I 0 W/m 15,4 km/h (3 Bft)
12.01.2014 22:58 1,9 C 0,6 C 86 % 1014,0 hPa 0,0 l/m 0 min 0 min 0,0 UV-I 0 W/m 18,0 km/h (3 Bft)
12.01.2014 23:00 1,9 C 0,6 C 86 % 1013,9 hPa 0,0 l/m 0 min 0 min 0,0 UV-I 0 W/m 15,4 km/h (3 Bft)
12.01.2014 23:02 1,9 C 0,6 C 86 % 1014,0 hPa 0,0 l/m 0 min 0 min 0,0 UV-I 0 W/m 18,0 km/h (3 Bft)
12.01.2014 23:04 1,9 C 0,6 C 86 % 1014,0 hPa 0,0 l/m 0 min 0 min 0,0 UV-I 0 W/m 15,4 km/h (3 Bft)
12.01.2014 23:06 1,9 C 0,6 C 86 % 1013,9 hPa 0,0 l/m 0 min 0 min 0,0 UV-I 0 W/m 12,9 km/h (3 Bft)
12.01.2014 23:08 1,9 C 0,6 C 86 % 1013,9 hPa 0,0 l/m 0 min 0 min 0,0 UV-I 0 W/m 12,9 km/h (3 Bft)
12.01.2014 23:10 1,9 C 0,6 C 86 % 1013,8 hPa 0,0 l/m 0 min 0 min 0,0 UV-I 0 W/m 20,6 km/h (4 Bft)
12.01.2014 23:12 1,9 C 0,6 C 86 % 1013,8 hPa 0,0 l/m 0 min 0 min 0,0 UV-I 0 W/m 18,0 km/h (3 Bft)
12.01.2014 23:14 1,9 C 0,6 C 86 % 1013,8 hPa 0,0 l/m 0 min 0 min 0,0 UV-I 0 W/m 23,2 km/h (4 Bft)
12.01.2014 23:16 1,9 C 0,6 C 86 % 1013,8 hPa 0,0 l/m 0 min 0 min 0,0 UV-I 0 W/m 12,9 km/h (3 Bft)
12.01.2014 23:18 1,9 C 0,6 C 86 % 1013,8 hPa 0,0 l/m 0 min 0 min 0,0 UV-I 0 W/m 20,6 km/h (4 Bft)
12.01.2014 23:20 2,0 C 0,6 C 86 % 1013,9 hPa 0,0 l/m 0 min 0 min 0,0 UV-I 0 W/m 20,6 km/h (4 Bft)
12.01.2014 23:22 2,1 C 0,6 C 86 % 1013,8 hPa 0,0 l/m 0 min 0 min 0,0 UV-I 0 W/m 20,6 km/h (4 Bft)
12.01.2014 23:24 2,1 C 0,6 C 86 % 1013,8 hPa 0,0 l/m 0 min 0 min 0,0 UV-I 0 W/m 25,7 km/h (4 Bft)
12.01.2014 23:26 2,1 C 0,6 C 86 % 1013,8 hPa 0,0 l/m 0 min 0 min 0,0 UV-I 0 W/m 20,6 km/h (4 Bft)
12.01.2014 23:28 2,1 C 0,6 C 86 % 1013,7 hPa 0,0 l/m 0 min 0 min 0,0 UV-I 0 W/m 25,7 km/h (4 Bft)
12.01.2014 23:30 2,1 C 0,6 C 86 % 1013,6 hPa 0,0 l/m 0 min 0 min 0,0 UV-I 0 W/m 15,4 km/h (3 Bft)
12.01.2014 23:32 2,1 C 0,6 C 86 % 1013,6 hPa 0,0 l/m 0 min 0 min 0,0 UV-I 0 W/m 18,0 km/h (3 Bft)
12.01.2014 23:34 2,1 C 0,6 C 86 % 1013,7 hPa 0,0 l/m 0 min 0 min 0,0 UV-I 0 W/m 15,4 km/h (3 Bft)
12.01.2014 23:36 2,1 C 0,6 C 86 % 1013,6 hPa 0,0 l/m 0 min 0 min 0,0 UV-I 0 W/m 12,9 km/h (3 Bft)
12.01.2014 23:38 2,1 C 0,6 C 86 % 1013,7 hPa 0,0 l/m 0 min 0 min 0,0 UV-I 0 W/m 20,6 km/h (4 Bft)
12.01.2014 23:40 2,1 C 0,6 C 86 % 1013,6 hPa 0,0 l/m 0 min 0 min 0,0 UV-I 0 W/m 18,0 km/h (3 Bft)
12.01.2014 23:42 2,1 C 0,6 C 85 % 1013,6 hPa 0,0 l/m 0 min 0 min 0,0 UV-I 0 W/m 12,9 km/h (3 Bft)
12.01.2014 23:44 2,1 C 0,6 C 85 % 1013,5 hPa 0,0 l/m 0 min 0 min 0,0 UV-I 0 W/m 12,9 km/h (3 Bft)
12.01.2014 23:46 2,1 C 0,6 C 85 % 1013,5 hPa 0,0 l/m 0 min 0 min 0,0 UV-I 0 W/m 15,4 km/h (3 Bft)
12.01.2014 23:48 2,1 C 0,6 C 85 % 1013,4 hPa 0,0 l/m 0 min 0 min 0,0 UV-I 0 W/m 15,4 km/h (3 Bft)
12.01.2014 23:50 2,1 C 0,6 C 85 % 1013,5 hPa 0,0 l/m 0 min 0 min 0,0 UV-I 0 W/m 12,9 km/h (3 Bft)
12.01.2014 23:52 2,1 C 0,6 C 85 % 1013,5 hPa 0,0 l/m 0 min 0 min 0,0 UV-I 0 W/m 10,3 km/h (2 Bft)
12.01.2014 23:54 2,0 C 0,6 C 85 % 1013,5 hPa 0,0 l/m 0 min 0 min 0,0 UV-I 0 W/m 12,9 km/h (3 Bft)
12.01.2014 23:56 2,0 C 0,6 C 85 % 1013,5 hPa 0,0 l/m 0 min 0 min 0,0 UV-I 0 W/m 18,0 km/h (3 Bft)
12.01.2014 23:58 2,0 C 0,6 C 85 % 1013,6 hPa 0,0 l/m 0 min 0 min 0,0 UV-I 0 W/m 23,2 km/h (4 Bft)
_ Min-Zeit 09:28 08:48 15:28 23:48 - - - - - 00:02
Minimum _ -0,8 C -2,8 C 80 % 1013,4 hPa - - - - - 0,0 km/h (0 Bft)
_ Max-Zeit 12:58 13:54 07:42 04:14 06:16 09:58 12:00 00:00 11:54 21:38
Maximum _ 6,8 C 5,6 C 100 % 1025,1 hPa 0,2 l/m 2 min 2 min 0,0 UV-I 330 W/m 30,9 km/h
S-SO (5 Bft)
Durchschnitt _ 2,7 C 0,8 C 90 % 1021,6 hPa #0,2 l/m #4:56 h #2 min. 0,0 UV-I 145 W/m 6,5 km/h (2 Bft)
© 2014 W. Hausmann